KC6NLX-13 Weather Reports


time (UTC)temp
C
wind
direction
speed
KPH
gust
KPH
rain 1hr
cm
rain 24hr
cm
rain mn
cm
humidity
%
barometer
mb
20260903011121 29 173 6.4 11.3 0.00 0.00 0.00 65 1016.0
20260903011021 29 180 4.8 11.3 0.00 0.00 0.00 65 1016.0
20260903010921 29 218 3.2 11.3 0.00 0.00 0.00 65 1016.0
20260903010821 29 186 4.8 11.3 0.00 0.00 0.00 65 1016.0
20260903010721 29 208 6.4 11.3 0.00 0.00 0.00 65 1016.0
20260903010621 29 246 6.4 11.3 0.00 0.00 0.00 65 1016.0
20260903010521 29 181 6.4 11.3 0.00 0.00 0.00 65 1016.0
20260903010421 30 263 4.8 11.3 0.00 0.00 0.00 65 1016.0
20260903010321 29 214 6.4 11.3 0.00 0.00 0.00 65 1016.0
20260903010221 30 210 6.4 12.9 0.00 0.00 0.00 65 1015.6
20260903010121 30 198 8.0 12.9 0.00 0.00 0.00 65 1016.0
20260903010021 30 191 4.8 12.9 0.00 0.00 0.00 64 1016.0
20260903005921 30 183 6.4 12.9 0.00 0.00 0.00 64 1016.0
20260903005821 30 205 6.4 12.9 0.00 0.00 0.00 64 1016.0
20260903005721 30 173 6.4 12.9 0.00 0.00 0.00 64 1016.0
20260903005621 30 195 6.4 12.9 0.00 0.00 0.00 64 1016.0
20260903005521 30 194 6.4 12.9 0.00 0.00 0.00 64 1015.6
20260903005421 30 160 8.0 12.9 0.00 0.00 0.00 64 1015.6
20260903005321 30 201 8.0 12.9 0.00 0.00 0.00 64 1015.6
20260903005221 30 165 8.0 12.9 0.00 0.00 0.00 64 1015.6
20260903005121 30 146 8.0 12.9 0.00 0.00 0.00 64 1015.6
20260903005021 30 188 8.0 12.9 0.00 0.00 0.00 64 1015.6
20260903004921 30 169 6.4 9.7 0.00 0.00 0.00 64 1015.6
20260903004821 30 233 4.8 9.7 0.00 0.00 0.00 64 1015.6
20260903004721 30 179 8.0 9.7 0.00 0.00 0.00 64 1015.6
20260903004621 30 184 4.8 9.7 0.00 0.00 0.00 64 1015.6
20260903004521 30 231 4.8 9.7 0.00 0.00 0.00 64 1015.6
20260903004421 30 186 6.4 9.7 0.00 0.00 0.00 64 1015.6
20260903004321 30 188 6.4 9.7 0.00 0.00 0.00 64 1015.6
20260903004221 30 167 4.8 11.3 0.00 0.00 0.00 63 1015.6
20260903004121 30 173 3.2 11.3 0.00 0.00 0.00 63 1015.6
20260903004021 30 194 6.4 11.3 0.00 0.00 0.00 63 1015.6
20260903003921 30 197 6.4 11.3 0.00 0.00 0.00 63 1015.6
20260903003721 30 207 6.4 11.3 0.00 0.00 0.00 63 1015.6
20260903003621 30 177 4.8 11.3 0.00 0.00 0.00 63 1015.6
20260903003521 30 204 4.8 11.3 0.00 0.00 0.00 63 1015.6
20260903003421 30 211 6.4 11.3 0.00 0.00 0.00 63 1015.6
20260903003321 30 184 4.8 11.3 0.00 0.00 0.00 63 1015.6
20260903003221 30 177 6.4 11.3 0.00 0.00 0.00 63 1015.6
20260903003121 30 177 4.8 11.3 0.00 0.00 0.00 63 1015.6
20260903003021 30 172 4.8 12.9 0.00 0.00 0.00 62 1015.6
20260903002921 30 187 4.8 12.9 0.00 0.00 0.00 62 1015.6
20260903002821 30 180 4.8 12.9 0.00 0.00 0.00 62 1015.6
20260903002721 30 172 8.0 12.9 0.00 0.00 0.00 62 1015.6
20260903002621 30 205 3.2 12.9 0.00 0.00 0.00 62 1015.6
20260903002521 30 190 4.8 12.9 0.00 0.00 0.00 62 1015.6
20260903002421 30 201 6.4 12.9 0.00 0.00 0.00 62 1015.6
20260903002321 30 180 6.4 12.9 0.00 0.00 0.00 62 1015.6
20260903002221 30 201 6.4 12.9 0.00 0.00 0.00 62 1015.6
20260903002121 30 186 8.0 12.9 0.00 0.00 0.00 62 1015.6
20260903002021 30 179 9.7 12.9 0.00 0.00 0.00 62 1015.6
20260903001921 30 177 8.0 12.9 0.00 0.00 0.00 61 1015.6
20260903001821 30 208 4.8 12.9 0.00 0.00 0.00 61 1015.6
20260903001721 30 191 8.0 12.9 0.00 0.00 0.00 61 1015.6
20260903001621 30 174 6.4 9.7 0.00 0.00 0.00 61 1015.6
20260903001521 30 188 6.4 9.7 0.00 0.00 0.00 61 1015.6
20260903001421 30 201 4.8 9.7 0.00 0.00 0.00 61 1015.6
20260903001321 30 191 4.8 11.3 0.00 0.00 0.00 61 1015.6
20260903001221 30 187 6.4 11.3 0.00 0.00 0.00 61 1015.6
20260903001121 30 201 6.4 11.3 0.00 0.00 0.00 61 1015.6
20260903001021 30 215 6.4 11.3 0.00 0.00 0.00 61 1015.6
20260903000921 30 158 6.4 11.3 0.00 0.00 0.00 61 1015.6
20260903000821 30 203 8.0 11.3 0.00 0.00 0.00 60 1015.6
20260903000721 31 204 3.2 11.3 0.00 0.00 0.00 60 1015.6
20260903000621 31 100 3.2 12.9 0.00 0.00 0.00 60 1015.6
20260903000521 31 152 4.8 12.9 0.00 0.00 0.00 60 1015.6
20260903000421 31 204 6.4 12.9 0.00 0.00 0.00 60 1015.6
20260903000321 31 197 6.4 12.9 0.00 0.00 0.00 60 1015.6
20260903000221 31 180 6.4 12.9 0.00 0.00 0.00 60 1015.6
20260903000121 31 219 4.8 12.9 0.00 0.00 0.00 60 1015.6
20260903000021 31 190 6.4 12.9 0.00 0.00 0.00 60 1015.6
20260902235921 31 204 6.4 12.9 0.00 0.00 0.00 60 1015.6
20260902235821 31 205 4.8 12.9 0.00 0.00 0.00 59 1015.3
20260902235721 31 163 8.0 12.9 0.00 0.00 0.00 59 1015.3
20260902235621 31 191 6.4 12.9 0.00 0.00 0.00 59 1015.6
20260902235521 31 226 4.8 11.3 0.00 0.00 0.00 59 1015.3
20260902235421 31 229 4.8 11.3 0.00 0.00 0.00 59 1015.6
20260902235321 31 184 8.0 11.3 0.00 0.00 0.00 59 1015.6
20260902235221 31 194 6.4 11.3 0.00 0.00 0.00 59 1015.3
20260902235121 31 198 4.8 9.7 0.00 0.00 0.00 58 1015.3
20260902235021 31 184 6.4 11.3 0.00 0.00 0.00 59 1015.6
20260902234921 31 188 4.8 11.3 0.00 0.00 0.00 58 1015.6
20260902234821 31 203 8.0 11.3 0.00 0.00 0.00 58 1015.6
20260902234721 31 194 4.8 11.3 0.00 0.00 0.00 58 1015.3
20260902234621 31 186 4.8 11.3 0.00 0.00 0.00 58 1015.3
20260902234521 31 166 6.4 11.3 0.00 0.00 0.00 58 1015.3
20260902234421 31 194 6.4 11.3 0.00 0.00 0.00 58 1015.3
20260902234321 31 200 6.4 11.3 0.00 0.00 0.00 58 1015.3
20260902234221 31 219 4.8 11.3 0.00 0.00 0.00 58 1015.3
20260902234121 31 205 8.0 11.3 0.00 0.00 0.00 58 1015.3
20260902234021 31 204 6.4 11.3 0.00 0.00 0.00 57 1015.6
20260902233921 31 207 8.0 11.3 0.00 0.00 0.00 57 1015.3
20260902233821 31 212 6.4 11.3 0.00 0.00 0.00 57 1015.3
20260902233721 31 166 8.0 11.3 0.00 0.00 0.00 57 1015.3
20260902233621 31 188 8.0 9.7 0.00 0.00 0.00 57 1015.6
20260902233521 31 191 4.8 9.7 0.00 0.00 0.00 57 1015.3
20260902233421 31 172 3.2 9.7 0.00 0.00 0.00 57 1015.3
20260902233321 31 173 4.8 9.7 0.00 0.00 0.00 57 1015.3
20260902233221 31 229 6.4 9.7 0.00 0.00 0.00 57 1015.3
20260902233121 31 224 4.8 9.7 0.00 0.00 0.00 56 1015.6
20260902233021 31 197 3.2 8.0 0.00 0.00 0.00 56 1015.3
20260902232921 31 184 3.2 8.0 0.00 0.00 0.00 56 1015.3
20260902232821 31 184 3.2 8.0 0.00 0.00 0.00 56 1015.6
20260902232721 31 201 4.8 8.0 0.00 0.00 0.00 56 1015.3
20260902232621 31 203 6.4 9.7 0.00 0.00 0.00 56 1015.3
20260902232521 31 204 4.8 9.7 0.00 0.00 0.00 56 1015.6
20260902232421 31 174 4.8 9.7 0.00 0.00 0.00 56 1015.6
20260902232321 31 183 4.8 9.7 0.00 0.00 0.00 56 1015.6
20260902232221 31 200 4.8 12.9 0.00 0.00 0.00 56 1015.3
20260902232121 32 187 0.0 12.9 0.00 0.00 0.00 55 1015.3
20260902232021 32 156 1.6 12.9 0.00 0.00 0.00 55 1015.3
20260902231921 32 190 4.8 14.5 0.00 0.00 0.00 55 1015.3
20260902231821 32 176 4.8 14.5 0.00 0.00 0.00 55 1015.6
20260902231721 32 179 4.8 14.5 0.00 0.00 0.00 55 1015.3
20260902231621 32 207 4.8 14.5 0.00 0.00 0.00 55 1015.3
20260902231521 32 210 6.4 14.5 0.00 0.00 0.00 55 1015.3
20260902231421 32 212 4.8 14.5 0.00 0.00 0.00 55 1015.6
20260902231321 32 194 9.7 14.5 0.00 0.00 0.00 55 1015.3
20260902231221 32 187 8.0 14.5 0.00 0.00 0.00 54 1015.6
20260902231121 32 215 4.8 14.5 0.00 0.00 0.00 54 1015.6
20260902231021 32 197 6.4 14.5 0.00 0.00 0.00 54 1015.3
20260902230921 32 201 6.4 12.9 0.00 0.00 0.00 54 1015.6
20260902230821 32 203 6.4 12.9 0.00 0.00 0.00 54 1015.6
20260902230721 32 242 3.2 12.9 0.00 0.00 0.00 54 1015.3
20260902230621 32 193 8.0 12.9 0.00 0.00 0.00 54 1015.3
20260902230521 32 200 8.0 14.5 0.00 0.00 0.00 54 1015.6
20260902230421 32 225 3.2 14.5 0.00 0.00 0.00 54 1015.3
20260902230321 32 152 4.8 14.5 0.00 0.00 0.00 54 1015.3
20260902230221 32 205 6.4 14.5 0.00 0.00 0.00 53 1015.3
20260902230121 32 176 8.0 14.5 0.00 0.00 0.00 53 1015.3
20260902230021 32 242 8.0 14.5 0.00 0.00 0.00 53 1015.3
20260902225921 32 197 4.8 14.5 0.00 0.00 0.00 54 1015.3
20260902225821 32 131 4.8 14.5 0.00 0.00 0.00 53 1015.3
20260902225722 32 226 8.0 14.5 0.00 0.00 0.00 53 1015.3
20260902225621 32 180 9.7 14.5 0.00 0.00 0.00 53 1015.3
20260902225521 32 183 6.4 12.9 0.00 0.00 0.00 53 1015.3
20260902225421 32 158 6.4 12.9 0.00 0.00 0.00 53 1015.3
20260902225321 32 205 4.8 12.9 0.00 0.00 0.00 53 1015.3
20260902225221 32 207 6.4 12.9 0.00 0.00 0.00 53 1015.3
20260902225121 32 198 8.0 16.1 0.00 0.00 0.00 52 1015.6
20260902225021 32 238 8.0 16.1 0.00 0.00 0.00 52 1015.6
20260902224921 32 188 8.0 16.1 0.00 0.00 0.00 52 1015.6
20260902224821 32 163 8.0 16.1 0.00 0.00 0.00 52 1015.6
20260902224721 32 148 1.6 16.1 0.00 0.00 0.00 52 1015.3
20260902224621 32 10 0.0 16.1 0.00 0.00 0.00 52 1015.3
20260902224521 32 6 3.2 16.1 0.00 0.00 0.00 52 1015.3
20260902224421 32 215 3.2 16.1 0.00 0.00 0.00 52 1015.3
20260902224321 32 63 3.2 17.7 0.00 0.00 0.00 52 1015.3
20260902224221 32 204 9.7 20.9 0.00 0.00 0.00 52 1015.3
20260902224121 32 181 4.8 20.9 0.00 0.00 0.00 52 1015.3
20260902224021 32 176 6.4 20.9 0.00 0.00 0.00 52 1015.3
20260902223921 32 201 6.4 20.9 0.00 0.00 0.00 52 1015.3
20260902223821 32 228 9.7 20.9 0.00 0.00 0.00 52 1015.3
20260902223721 32 224 3.2 20.9 0.00 0.00 0.00 52 1015.3
20260902223621 32 187 9.7 20.9 0.00 0.00 0.00 51 1015.3
20260902223521 32 259 9.7 20.9 0.00 0.00 0.00 51 1015.3
20260902223421 32 188 9.7 20.9 0.00 0.00 0.00 51 1015.3
20260902223321 32 203 12.9 20.9 0.00 0.00 0.00 51 1015.3
20260902223221 32 181 8.0 16.1 0.00 0.00 0.00 50 1015.3
20260902223121 32 198 8.0 16.1 0.00 0.00 0.00 50 1015.3
20260902223021 32 165 8.0 16.1 0.00 0.00 0.00 50 1015.3
20260902222921 32 195 6.4 16.1 0.00 0.00 0.00 50 1015.6
20260902222821 32 212 8.0 16.1 0.00 0.00 0.00 50 1015.3
20260902222721 32 193 8.0 16.1 0.00 0.00 0.00 50 1015.3
20260902222622 32 172 9.7 16.1 0.00 0.00 0.00 50 1015.3
20260902222521 32 212 11.3 16.1 0.00 0.00 0.00 49 1015.6
20260902222421 33 194 9.7 14.5 0.00 0.00 0.00 50 1015.3
20260902222321 33 212 6.4 14.5 0.00 0.00 0.00 49 1015.6
20260902222221 33 210 6.4 14.5 0.00 0.00 0.00 49 1015.3
20260902222121 33 177 8.0 14.5 0.00 0.00 0.00 49 1015.6
20260902222021 33 246 6.4 14.5 0.00 0.00 0.00 49 1015.6
20260902221921 33 201 9.7 14.5 0.00 0.00 0.00 48 1015.6
20260902221821 33 215 4.8 14.5 0.00 0.00 0.00 48 1015.3
20260902221721 33 186 9.7 14.5 0.00 0.00 0.00 48 1015.6
20260902221621 33 187 4.8 17.7 0.00 0.00 0.00 48 1015.6
20260902221521 33 195 4.8 17.7 0.00 0.00 0.00 48 1015.3
20260902221421 33 203 8.0 17.7 0.00 0.00 0.00 48 1015.6
20260902221321 33 215 4.8 17.7 0.00 0.00 0.00 48 1015.6
20260902221221 33 222 4.8 17.7 0.00 0.00 0.00 48 1015.6
20260902221121 33 208 6.4 17.7 0.00 0.00 0.00 48 1015.3
20260902221021 33 176 8.0 17.7 0.00 0.00 0.00 48 1015.3
20260902220921 33 97 4.8 17.7 0.00 0.00 0.00 48 1015.3
20260902220821 33 200 9.7 17.7 0.00 0.00 0.00 47 1015.3
20260902220721 33 212 9.7 17.7 0.00 0.00 0.00 47 1015.3
20260902220621 33 188 9.7 17.7 0.00 0.00 0.00 47 1015.3
20260902220521 33 201 8.0 17.7 0.00 0.00 0.00 47 1015.6
20260902220421 33 235 8.0 17.7 0.00 0.00 0.00 47 1015.6
20260902220321 33 217 6.4 17.7 0.00 0.00 0.00 47 1015.3
20260902220221 33 198 6.4 17.7 0.00 0.00 0.00 46 1015.3
20260902220121 33 82 3.2 14.5 0.00 0.00 0.00 47 1015.3
20260902220021 33 188 3.2 14.5 0.00 0.00 0.00 47 1015.3
20260902215921 33 141 1.6 14.5 0.00 0.00 0.00 47 1015.3
20260902215821 33 211 6.4 14.5 0.00 0.00 0.00 47 1015.3
20260902215721 33 184 8.0 16.1 0.00 0.00 0.00 47 1015.3
20260902215621 33 186 6.4 16.1 0.00 0.00 0.00 47 1015.3
20260902215521 33 221 4.8 16.1 0.00 0.00 0.00 46 1015.3
20260902215421 33 194 8.0 16.1 0.00 0.00 0.00 46 1015.3
20260902215321 33 181 6.4 16.1 0.00 0.00 0.00 46 1015.3
20260902215221 33 184 4.8 19.3 0.00 0.00 0.00 46 1015.3
20260902215121 33 208 4.8 19.3 0.00 0.00 0.00 46 1015.3
20260902215021 33 200 6.4 19.3 0.00 0.00 0.00 46 1015.3
20260902214921 33 215 6.4 19.3 0.00 0.00 0.00 46 1015.3
20260902214821 33 208 8.0 19.3 0.00 0.00 0.00 45 1015.3
20260902214721 33 214 6.4 19.3 0.00 0.00 0.00 45 1015.6
20260902214621 33 172 3.2 19.3 0.00 0.00 0.00 46 1015.3
20260902214521 33 224 8.0 19.3 0.00 0.00 0.00 45 1015.3
20260902214421 33 212 9.7 19.3 0.00 0.00 0.00 44 1015.3
20260902214321 33 42 6.4 19.3 0.00 0.00 0.00 45 1015.3
20260902214221 33 267 8.0 19.3 0.00 0.00 0.00 45 1015.6
20260902214121 33 165 8.0 19.3 0.00 0.00 0.00 45 1015.6
20260902214021 33 226 9.7 19.3 0.00 0.00 0.00 45 1015.6
20260902213921 33 229 9.7 20.9 0.00 0.00 0.00 44 1015.3
20260902213821 33 156 9.7 20.9 0.00 0.00 0.00 45 1015.6
20260902213721 33 153 3.2 20.9 0.00 0.00 0.00 45 1015.6
20260902213621 33 176 9.7 20.9 0.00 0.00 0.00 45 1015.6
20260902213521 33 169 8.0 20.9 0.00 0.00 0.00 44 1015.6
20260902213421 33 217 9.7 20.9 0.00 0.00 0.00 44 1015.6
20260902213321 33 222 6.4 20.9 0.00 0.00 0.00 44 1015.6
20260902213221 33 193 9.7 22.5 0.00 0.00 0.00 44 1015.6
20260902213121 33 173 9.7 22.5 0.00 0.00 0.00 44 1015.3
20260902213021 33 149 11.3 22.5 0.00 0.00 0.00 44 1015.3
20260902212921 33 195 11.3 22.5 0.00 0.00 0.00 44 1015.3
20260902212821 33 155 11.3 22.5 0.00 0.00 0.00 43 1015.3
20260902212721 33 176 9.7 22.5 0.00 0.00 0.00 43 1015.6
20260902212621 33 177 8.0 22.5 0.00 0.00 0.00 43 1015.3
20260902212521 33 224 11.3 22.5 0.00 0.00 0.00 44 1015.6
20260902212421 33 197 8.0 22.5 0.00 0.00 0.00 44 1015.6
20260902212321 34 191 9.7 22.5 0.00 0.00 0.00 44 1015.3
20260902212221 33 224 4.8 20.9 0.00 0.00 0.00 44 1015.3
20260902212121 33 110 8.0 20.9 0.00 0.00 0.00 43 1015.6
20260902212021 33 146 6.4 20.9 0.00 0.00 0.00 43 1015.3
20260902211921 33 183 9.7 20.9 0.00 0.00 0.00 43 1015.3
20260902211821 33 201 12.9 20.9 0.00 0.00 0.00 43 1015.6
20260902211721 34 173 11.3 20.9 0.00 0.00 0.00 43 1015.3
20260902211621 33 187 14.5 20.9 0.00 0.00 0.00 43 1015.3
20260902211521 34 214 12.9 19.3 0.00 0.00 0.00 42 1015.3
20260902211421 34 179 11.3 19.3 0.00 0.00 0.00 42 1015.3
20260902211321 34 217 8.0 19.3 0.00 0.00 0.00 43 1015.3
20260902211221 34 211 8.0 19.3 0.00 0.00 0.00 42 1015.3
20260902211121 34 229 9.7 19.3 0.00 0.00 0.00 43 1015.3
20260902211021 34 181 8.0 19.3 0.00 0.00 0.00 43 1015.6
20260902210921 34 222 3.2 16.1 0.00 0.00 0.00 44 1015.3
20260902210821 34 194 1.6 16.1 0.00 0.00 0.00 43 1015.3
20260902210721 34 215 4.8 25.7 0.00 0.00 0.00 43 1015.6
20260902210621 34 287 4.8 25.7 0.00 0.00 0.00 43 1015.6
20260902210521 34 198 9.7 25.7 0.00 0.00 0.00 43 1015.6
20260902210421 34 224 4.8 25.7 0.00 0.00 0.00 43 1015.6
20260902210321 34 69 4.8 25.7 0.00 0.00 0.00 43 1015.6
20260902210221 34 146 3.2 25.7 0.00 0.00 0.00 44 1015.6
20260902210121 34 45 4.8 25.7 0.00 0.00 0.00 43 1015.6
20260902210021 33 187 9.7 25.7 0.00 0.00 0.00 43 1015.6
20260902205921 33 195 6.4 25.7 0.00 0.00 0.00 43 1015.6
20260902205821 33 266 12.9 25.7 0.00 0.00 0.00 43 1015.6
20260902205721 33 176 12.9 20.9 0.00 0.00 0.00 43 1015.6
20260902205621 33 193 9.7 19.3 0.00 0.00 0.00 44 1015.6
20260902205521 34 197 6.4 19.3 0.00 0.00 0.00 43 1015.6
20260902205421 33 242 9.7 19.3 0.00 0.00 0.00 43 1015.6
20260902205321 34 222 4.8 19.3 0.00 0.00 0.00 43 1015.6
20260902205221 33 201 9.7 19.3 0.00 0.00 0.00 42 1015.6
20260902205121 33 170 9.7 19.3 0.00 0.00 0.00 41 1015.6
20260902205021 34 179 11.3 19.3 0.00 0.00 0.00 41 1015.6
20260902204921 34 197 9.7 25.7 0.00 0.00 0.00 42 1015.6
20260902204821 34 193 6.4 25.7 0.00 0.00 0.00 42 1015.6
20260902204721 34 197 6.4 25.7 0.00 0.00 0.00 43 1015.6
20260902204621 34 156 8.0 25.7 0.00 0.00 0.00 42 1015.6
20260902204521 34 235 8.0 25.7 0.00 0.00 0.00 43 1015.6
20260902204421 34 264 8.0 25.7 0.00 0.00 0.00 43 1015.6
20260902204321 33 210 11.3 25.7 0.00 0.00 0.00 43 1015.6
20260902204221 34 212 12.9 25.7 0.00 0.00 0.00 43 1015.6
20260902204121 34 210 11.3 25.7 0.00 0.00 0.00 42 1015.6
20260902204021 34 245 14.5 25.7 0.00 0.00 0.00 42 1015.6
20260902203921 34 183 8.0 19.3 0.00 0.00 0.00 42 1015.6
20260902203821 34 191 3.2 20.9 0.00 0.00 0.00 42 1015.6
20260902203721 34 290 3.2 22.5 0.00 0.00 0.00 42 1015.6
20260902203621 34 245 4.8 22.5 0.00 0.00 0.00 42 1015.6
20260902203521 34 203 6.4 22.5 0.00 0.00 0.00 42 1015.6
20260902203421 34 311 3.2 22.5 0.00 0.00 0.00 44 1015.6
20260902203321 34 259 6.4 22.5 0.00 0.00 0.00 43 1015.6
20260902203221 34 224 6.4 22.5 0.00 0.00 0.00 43 1016.0
20260902203121 34 170 4.8 22.5 0.00 0.00 0.00 43 1016.0
20260902203021 34 302 9.7 22.5 0.00 0.00 0.00 42 1016.0
20260902202921 34 187 9.7 22.5 0.00 0.00 0.00 43 1016.0
20260902202821 34 180 9.7 22.5 0.00 0.00 0.00 42 1016.0
20260902202721 34 8 8.0 20.9 0.00 0.00 0.00 41 1016.0
20260902202621 34 194 8.0 20.9 0.00 0.00 0.00 41 1016.0
20260902202521 34 218 4.8 20.9 0.00 0.00 0.00 42 1016.0
20260902202421 34 167 4.8 20.9 0.00 0.00 0.00 42 1016.0
20260902202321 34 197 9.7 20.9 0.00 0.00 0.00 43 1016.0
20260902202221 34 176 8.0 24.1 0.00 0.00 0.00 43 1016.0
20260902202121 34 211 12.9 24.1 0.00 0.00 0.00 42 1016.0
20260902202021 34 172 6.4 24.1 0.00 0.00 0.00 43 1016.0
20260902201921 34 181 8.0 24.1 0.00 0.00 0.00 43 1016.0
20260902201821 34 188 4.8 24.1 0.00 0.00 0.00 43 1016.0
20260902201721 34 55 3.2 24.1 0.00 0.00 0.00 43 1016.0
20260902201621 34 326 8.0 24.1 0.00 0.00 0.00 42 1016.0
20260902201521 34 224 9.7 24.1 0.00 0.00 0.00 43 1016.0
20260902201421 34 224 11.3 24.1 0.00 0.00 0.00 42 1016.0
20260902201321 34 169 14.5 24.1 0.00 0.00 0.00 43 1016.0
20260902201221 34 153 9.7 19.3 0.00 0.00 0.00 43 1016.0
20260902201121 34 170 12.9 19.3 0.00 0.00 0.00 42 1016.3
20260902201021 34 194 9.7 19.3 0.00 0.00 0.00 42 1016.0
20260902200921 34 224 4.8 19.3 0.00 0.00 0.00 42 1016.0
20260902200821 34 219 3.2 19.3 0.00 0.00 0.00 42 1016.0
20260902200721 34 224 9.7 19.3 0.00 0.00 0.00 41 1016.0
20260902200621 34 204 9.7 19.3 0.00 0.00 0.00 41 1016.3
20260902200521 34 204 11.3 19.3 0.00 0.00 0.00 41 1016.3
20260902200421 34 225 9.7 19.3 0.00 0.00 0.00 41 1016.3
20260902200321 34 242 11.3 19.3 0.00 0.00 0.00 41 1016.3
20260902200221 34 191 11.3 19.3 0.00 0.00 0.00 42 1016.3
20260902200121 34 203 11.3 19.3 0.00 0.00 0.00 42 1016.3
20260902200021 34 167 12.9 19.3 0.00 0.00 0.00 41 1016.3
20260902195921 34 190 9.7 19.3 0.00 0.00 0.00 41 1016.3
20260902195821 34 188 4.8 19.3 0.00 0.00 0.00 42 1016.3
20260902195721 34 184 9.7 19.3 0.00 0.00 0.00 41 1016.3
20260902195621 34 219 11.3 19.3 0.00 0.00 0.00 42 1016.3
20260902195521 34 215 9.7 19.3 0.00 0.00 0.00 41 1016.3
20260902195421 34 188 9.7 19.3 0.00 0.00 0.00 40 1016.3
20260902195321 34 218 9.7 19.3 0.00 0.00 0.00 40 1016.3
20260902195221 34 188 11.3 19.3 0.00 0.00 0.00 39 1016.3
20260902195121 34 180 12.9 19.3 0.00 0.00 0.00 39 1016.3
20260902195021 34 224 9.7 19.3 0.00 0.00 0.00 39 1016.3
20260902194921 34 195 8.0 19.3 0.00 0.00 0.00 39 1016.3
20260902194821 34 198 11.3 19.3 0.00 0.00 0.00 40 1016.3
20260902194721 34 177 9.7 19.3 0.00 0.00 0.00 40 1016.3
20260902194621 34 218 8.0 19.3 0.00 0.00 0.00 39 1016.3
20260902194521 34 132 9.7 19.3 0.00 0.00 0.00 39 1016.3
20260902194421 34 163 4.8 19.3 0.00 0.00 0.00 40 1016.3
20260902194321 34 187 9.7 19.3 0.00 0.00 0.00 39 1016.3
20260902194221 34 174 4.8 22.5 0.00 0.00 0.00 39 1016.3
20260902194121 34 343 4.8 22.5 0.00 0.00 0.00 40 1016.3
20260902194021 34 187 11.3 24.1 0.00 0.00 0.00 38 1016.3
20260902193921 34 148 4.8 24.1 0.00 0.00 0.00 38 1016.3
20260902193821 34 160 6.4 24.1 0.00 0.00 0.00 40 1016.3
20260902193721 34 191 11.3 24.1 0.00 0.00 0.00 39 1016.3
20260902193621 34 146 9.7 24.1 0.00 0.00 0.00 40 1016.3
20260902193521 34 195 11.3 24.1 0.00 0.00 0.00 40 1016.3
20260902193421 34 166 11.3 24.1 0.00 0.00 0.00 40 1016.3
20260902193321 34 203 16.1 24.1 0.00 0.00 0.00 40 1016.3
20260902193221 34 177 12.9 24.1 0.00 0.00 0.00 40 1016.3
20260902193121 34 181 12.9 24.1 0.00 0.00 0.00 40 1016.3
20260902193021 35 169 11.3 19.3 0.00 0.00 0.00 39 1016.3
20260902192921 35 129 3.2 17.7 0.00 0.00 0.00 39 1016.3
20260902192821 35 180 9.7 22.5 0.00 0.00 0.00 39 1016.3
20260902192721 35 167 8.0 22.5 0.00 0.00 0.00 40 1016.3
20260902192621 35 314 1.6 22.5 0.00 0.00 0.00 41 1016.3
20260902192521 35 149 3.2 22.5 0.00 0.00 0.00 40 1016.3
20260902192421 35 291 4.8 22.5 0.00 0.00 0.00 40 1016.3
20260902192321 35 186 8.0 22.5 0.00 0.00 0.00 41 1016.3
20260902192221 34 252 9.7 22.5 0.00 0.00 0.00 41 1016.3
20260902192121 35 226 8.0 22.5 0.00 0.00 0.00 40 1016.3
20260902192021 34 255 8.0 22.5 0.00 0.00 0.00 40 1016.3
20260902191921 34 174 14.5 22.5 0.00 0.00 0.00 39 1016.3
20260902191821 35 195 8.0 20.9 0.00 0.00 0.00 40 1016.3
20260902191721 35 215 9.7 20.9 0.00 0.00 0.00 40 1016.3
20260902191621 34 217 11.3 20.9 0.00 0.00 0.00 39 1016.3
20260902191521 34 179 9.7 20.9 0.00 0.00 0.00 41 1016.3
20260902191421 34 193 11.3 20.9 0.00 0.00 0.00 40 1016.3
20260902191321 35 229 6.4 20.9 0.00 0.00 0.00 41 1016.3
20260902191221 34 184 3.2 20.9 0.00 0.00 0.00 41 1016.3
20260902191121 34 176 6.4 20.9 0.00 0.00 0.00 40 1016.3
20260902191021 34 203 11.3 20.9 0.00 0.00 0.00 41 1016.3
20260902190921 34 207 14.5 20.9 0.00 0.00 0.00 40 1016.6
20260902190821 34 180 6.4 16.1 0.00 0.00 0.00 40 1016.3
20260902190721 34 329 3.2 16.1 0.00 0.00 0.00 40 1016.6
20260902190621 34 158 4.8 24.1 0.00 0.00 0.00 41 1016.6
20260902190521 34 187 3.2 24.1 0.00 0.00 0.00 41 1016.3
20260902190421 34 225 4.8 25.7 0.00 0.00 0.00 41 1016.6
20260902190321 34 31 1.6 25.7 0.00 0.00 0.00 42 1016.3
20260902190221 34 262 3.2 25.7 0.00 0.00 0.00 42 1016.3
20260902190121 34 212 6.4 25.7 0.00 0.00 0.00 42 1016.3
20260902190021 34 186 3.2 25.7 0.00 0.00 0.00 42 1016.3
20260902185921 33 238 9.7 25.7 0.00 0.00 0.00 42 1016.3
20260902185821 33 191 9.7 25.7 0.00 0.00 0.00 41 1016.3
20260902185721 33 183 16.1 25.7 0.00 0.00 0.00 41 1016.6
20260902185621 33 210 14.5 25.7 0.00 0.00 0.00 40 1016.3
20260902185521 34 193 14.5 25.7 0.00 0.00 0.00 41 1016.3
20260902185421 34 120 11.3 19.3 0.00 0.00 0.00 41 1016.3
20260902185321 34 191 9.7 19.3 0.00 0.00 0.00 40 1016.3
20260902185221 34 204 4.8 19.3 0.00 0.00 0.00 42 1016.3
20260902185121 34 225 3.2 17.7 0.00 0.00 0.00 42 1016.3
20260902185021 34 200 11.3 17.7 0.00 0.00 0.00 41 1016.6
20260902184921 34 191 8.0 17.7 0.00 0.00 0.00 42 1016.3
20260902184821 34 240 3.2 16.1 0.00 0.00 0.00 42 1016.3
20260902184721 34 212 3.2 16.1 0.00 0.00 0.00 42 1016.3
20260902184621 34 153 4.8 16.1 0.00 0.00 0.00 42 1016.3
20260902184521 34 101 6.4 16.1 0.00 0.00 0.00 43 1016.3
20260902184421 34 195 8.0 16.1 0.00 0.00 0.00 43 1016.3
20260902184321 34 187 9.7 16.1 0.00 0.00 0.00 42 1016.3
20260902184221 34 232 8.0 16.1 0.00 0.00 0.00 42 1016.3
20260902184121 34 170 9.7 16.1 0.00 0.00 0.00 41 1016.3
20260902184021 34 207 9.7 16.1 0.00 0.00 0.00 41 1016.6
20260902183921 34 181 9.7 16.1 0.00 0.00 0.00 42 1016.6
20260902183821 34 148 6.4 24.1 0.00 0.00 0.00 42 1016.6
20260902183721 34 170 3.2 24.1 0.00 0.00 0.00 42 1016.6
20260902183621 34 305 4.8 24.1 0.00 0.00 0.00 42 1016.6
20260902183521 34 239 6.4 24.1 0.00 0.00 0.00 42 1016.6
20260902183421 34 239 9.7 24.1 0.00 0.00 0.00 41 1016.6
20260902183321 34 210 8.0 24.1 0.00 0.00 0.00 42 1016.6
20260902183221 34 201 8.0 24.1 0.00 0.00 0.00 41 1016.3
20260902183121 34 210 8.0 24.1 0.00 0.00 0.00 40 1016.6
20260902183021 34 221 9.7 24.1 0.00 0.00 0.00 40 1016.6
20260902182921 34 229 14.5 24.1 0.00 0.00 0.00 39 1016.6
20260902182821 34 243 9.7 19.3 0.00 0.00 0.00 39 1016.6
20260902182721 34 170 8.0 20.9 0.00 0.00 0.00 41 1016.3
20260902182621 34 135 4.8 20.9 0.00 0.00 0.00 41 1016.3
20260902182521 34 274 3.2 20.9 0.00 0.00 0.00 42 1016.6
20260902182421 34 242 8.0 20.9 0.00 0.00 0.00 41 1016.6
20260902182321 34 191 8.0 20.9 0.00 0.00 0.00 41 1016.6
20260902182221 33 231 6.4 20.9 0.00 0.00 0.00 41 1016.6
20260902182121 34 269 3.2 20.9 0.00 0.00 0.00 41 1016.6
20260902182021 33 235 4.8 20.9 0.00 0.00 0.00 41 1016.6
20260902181921 33 232 11.3 20.9 0.00 0.00 0.00 41 1016.6
20260902181821 33 183 14.5 20.9 0.00 0.00 0.00 40 1016.6
20260902181721 33 222 9.7 20.9 0.00 0.00 0.00 41 1016.6
20260902181621 33 215 12.9 20.9 0.00 0.00 0.00 41 1016.6
20260902181521 33 197 9.7 20.9 0.00 0.00 0.00 42 1016.6
20260902181421 33 145 12.9 20.9 0.00 0.00 0.00 41 1016.6
20260902181321 33 207 12.9 20.9 0.00 0.00 0.00 41 1016.6
20260902181221 33 188 12.9 20.9 0.00 0.00 0.00 43 1016.6
20260902181121 33 166 8.0 19.3 0.00 0.00 0.00 44 1016.6
20260902181021 33 183 8.0 19.3 0.00 0.00 0.00 43 1016.6
20260902180921 33 186 8.0 19.3 0.00 0.00 0.00 44 1016.6
20260902180821 33 205 9.7 19.3 0.00 0.00 0.00 45 1016.6
20260902180721 33 191 8.0 19.3 0.00 0.00 0.00 44 1016.6
20260902180621 33 204 6.4 19.3 0.00 0.00 0.00 43 1016.6
20260902180521 33 204 9.7 19.3 0.00 0.00 0.00 43 1016.6
20260902180421 33 201 12.9 19.3 0.00 0.00 0.00 42 1016.6
20260902180321 33 173 6.4 17.7 0.00 0.00 0.00 45 1016.6
20260902180221 33 218 11.3 17.7 0.00 0.00 0.00 43 1016.6
20260902180121 33 290 8.0 16.1 0.00 0.00 0.00 43 1016.6
20260902180021 33 198 11.3 16.1 0.00 0.00 0.00 44 1016.6
20260902175921 33 181 9.7 16.1 0.00 0.00 0.00 44 1016.6
20260902175821 33 208 6.4 14.5 0.00 0.00 0.00 45 1016.6
20260902175721 33 304 3.2 14.5 0.00 0.00 0.00 45 1016.6
20260902175621 33 340 3.2 14.5 0.00 0.00 0.00 44 1016.6
20260902175521 33 219 4.8 14.5 0.00 0.00 0.00 44 1016.6
20260902175421 33 183 8.0 14.5 0.00 0.00 0.00 44 1016.6
20260902175321 33 229 9.7 14.5 0.00 0.00 0.00 45 1017.0
20260902175221 33 162 4.8 12.9 0.00 0.00 0.00 45 1016.6
20260902175121 33 25 1.6 12.9 0.00 0.00 0.00 45 1017.0
20260902175021 33 179 3.2 12.9 0.00 0.00 0.00 45 1017.0
20260902174921 33 297 4.8 12.9 0.00 0.00 0.00 44 1017.0
20260902174821 33 249 6.4 12.9 0.00 0.00 0.00 44 1017.0
20260902174721 33 307 6.4 12.9 0.00 0.00 0.00 44 1017.0
20260902174621 33 287 8.0 14.5 0.00 0.00 0.00 43 1017.0
20260902174521 33 143 4.8 14.5 0.00 0.00 0.00 45 1017.0
20260902174421 33 257 3.2 14.5 0.00 0.00 0.00 45 1017.0
20260902174321 33 300 3.2 14.5 0.00 0.00 0.00 45 1017.0
20260902174221 33 162 4.8 14.5 0.00 0.00 0.00 45 1017.0
20260902174121 33 155 4.8 20.9 0.00 0.00 0.00 45 1017.0
20260902174021 33 193 8.0 20.9 0.00 0.00 0.00 44 1017.0
20260902173921 33 305 4.8 22.5 0.00 0.00 0.00 45 1017.0
20260902173821 33 197 4.8 22.5 0.00 0.00 0.00 45 1017.0
20260902173721 33 183 6.4 22.5 0.00 0.00 0.00 44 1017.0
20260902173621 33 84 3.2 22.5 0.00 0.00 0.00 45 1017.0
20260902173521 33 214 3.2 22.5 0.00 0.00 0.00 45 1017.0
20260902173421 33 238 4.8 22.5 0.00 0.00 0.00 45 1017.0
20260902173321 33 340 6.4 22.5 0.00 0.00 0.00 44 1017.0
20260902173221 33 210 12.9 22.5 0.00 0.00 0.00 43 1017.0
20260902173121 33 190 9.7 22.5 0.00 0.00 0.00 43 1017.0
20260902173021 33 231 16.1 22.5 0.00 0.00 0.00 43 1017.0
20260902172921 33 203 12.9 20.9 0.00 0.00 0.00 43 1017.0
20260902172821 33 190 11.3 17.7 0.00 0.00 0.00 42 1017.0
20260902172721 33 150 9.7 17.7 0.00 0.00 0.00 43 1017.0
20260902172621 33 210 9.7 17.7 0.00 0.00 0.00 43 1017.0
20260902172521 33 204 11.3 17.7 0.00 0.00 0.00 43 1017.0
20260902172421 33 193 8.0 16.1 0.00 0.00 0.00 44 1017.0
20260902172321 33 179 9.7 16.1 0.00 0.00 0.00 44 1017.0
20260902172221 33 200 9.7 14.5 0.00 0.00 0.00 44 1017.0
20260902172121 33 208 4.8 11.3 0.00 0.00 0.00 46 1017.0
20260902172021 33 288 4.8 14.5 0.00 0.00 0.00 46 1017.0
20260902171921 33 302 4.8 14.5 0.00 0.00 0.00 46 1017.0
20260902171821 33 170 3.2 14.5 0.00 0.00 0.00 46 1017.0
20260902171721 33 291 3.2 17.7 0.00 0.00 0.00 45 1017.0
20260902171621 33 228 4.8 17.7 0.00 0.00 0.00 45 1017.0
20260902171521 33 184 8.0 17.7 0.00 0.00 0.00 44 1017.0
20260902171421 33 160 4.8 17.7 0.00 0.00 0.00 46 1017.0
20260902171321 33 160 3.2 17.7 0.00 0.00 0.00 46 1017.0
20260902171221 33 295 4.8 17.7 0.00 0.00 0.00 46 1017.3
20260902171121 33 198 11.3 17.7 0.00 0.00 0.00 45 1017.0
20260902171021 33 177 6.4 17.7 0.00 0.00 0.00 45 1017.3
20260902170921 33 125 9.7 17.7 0.00 0.00 0.00 45 1017.3
20260902170821 33 190 12.9 17.7 0.00 0.00 0.00 44 1017.0
20260902170721 33 188 6.4 16.1 0.00 0.00 0.00 45 1017.3
20260902170621 33 356 4.8 16.1 0.00 0.00 0.00 46 1017.3
20260902170521 33 169 9.7 17.7 0.00 0.00 0.00 45 1017.3
20260902170421 33 183 9.7 17.7 0.00 0.00 0.00 44 1017.3
20260902170321 33 188 6.4 17.7 0.00 0.00 0.00 45 1017.3
20260902170221 33 248 8.0 17.7 0.00 0.00 0.00 45 1017.3
20260902170121 33 173 9.7 17.7 0.00 0.00 0.00 44 1017.3
20260902170021 33 208 9.7 17.7 0.00 0.00 0.00 44 1017.3
20260902165921 33 186 8.0 17.7 0.00 0.00 0.00 44 1017.3
20260902165821 33 221 3.2 17.7 0.00 0.00 0.00 45 1017.3
20260902165721 33 249 4.8 17.7 0.00 0.00 0.00 46 1017.3
20260902165621 33 193 11.3 17.7 0.00 0.00 0.00 44 1017.3
20260902165521 33 170 6.4 16.1 0.00 0.00 0.00 47 1017.3
20260902165421 33 136 1.6 14.5 0.00 0.00 0.00 47 1017.3
20260902165321 33 262 1.6 14.5 0.00 0.00 0.00 47 1017.3
20260902165221 33 44 0.0 14.5 0.00 0.00 0.00 47 1017.3
20260902165121 33 163 8.0 14.5 0.00 0.00 0.00 46 1017.3
20260902165021 33 211 3.2 12.9 0.00 0.00 0.00 46 1017.3
20260902164921 33 248 8.0 12.9 0.00 0.00 0.00 46 1017.3
20260902164821 33 173 8.0 12.9 0.00 0.00 0.00 47 1017.3
20260902164721 33 186 8.0 12.9 0.00 0.00 0.00 47 1017.3
20260902164621 33 194 6.4 12.9 0.00 0.00 0.00 49 1017.3
20260902164521 33 225 1.6 12.9 0.00 0.00 0.00 49 1017.3
20260902164421 33 257 1.6 12.9 0.00 0.00 0.00 48 1017.3
20260902164321 33 260 6.4 12.9 0.00 0.00 0.00 48 1017.3
20260902164221 33 184 6.4 14.5 0.00 0.00 0.00 47 1017.3
20260902164121 33 187 4.8 14.5 0.00 0.00 0.00 48 1017.3
20260902164021 33 190 9.7 14.5 0.00 0.00 0.00 47 1017.3
20260902163921 33 176 4.8 14.5 0.00 0.00 0.00 48 1017.3
20260902163821 33 193 8.0 14.5 0.00 0.00 0.00 48 1017.3
20260902163721 33 214 6.4 14.5 0.00 0.00 0.00 49 1017.3
20260902163621 33 90 3.2 14.5 0.00 0.00 0.00 49 1017.3
20260902163521 33 205 6.4 14.5 0.00 0.00 0.00 49 1017.3
20260902163421 33 165 4.8 14.5 0.00 0.00 0.00 49 1017.3
20260902163321 32 193 8.0 14.5 0.00 0.00 0.00 48 1017.3
20260902163221 33 205 3.2 11.3 0.00 0.00 0.00 48 1017.3
20260902163121 33 235 6.4 11.3 0.00 0.00 0.00 47 1017.3
20260902163021 33 210 3.2 11.3 0.00 0.00 0.00 47 1017.3
20260902162921 33 242 4.8 11.3 0.00 0.00 0.00 48 1017.3
20260902162821 33 293 1.6 12.9 0.00 0.00 0.00 48 1017.3
20260902162721 33 184 3.2 12.9 0.00 0.00 0.00 47 1017.3
20260902162621 33 314 3.2 12.9 0.00 0.00 0.00 48 1017.3
20260902162521 33 28 1.6 12.9 0.00 0.00 0.00 48 1017.3
20260902162421 33 266 6.4 12.9 0.00 0.00 0.00 48 1017.3
20260902162321 33 194 8.0 12.9 0.00 0.00 0.00 47 1017.3
20260902162221 32 195 3.2 12.9 0.00 0.00 0.00 47 1017.3
20260902162121 32 117 6.4 12.9 0.00 0.00 0.00 47 1017.3
20260902162021 32 249 4.8 12.9 0.00 0.00 0.00 48 1017.3
20260902161921 32 212 6.4 12.9 0.00 0.00 0.00 48 1017.3
20260902161821 32 163 1.6 14.5 0.00 0.00 0.00 48 1017.3
20260902161721 32 163 3.2 16.1 0.00 0.00 0.00 48 1017.3
20260902161621 32 214 3.2 16.1 0.00 0.00 0.00 47 1017.3
20260902161521 32 136 3.2 16.1 0.00 0.00 0.00 48 1017.3
20260902161421 32 308 4.8 16.1 0.00 0.00 0.00 47 1017.3
20260902161321 32 270 4.8 16.1 0.00 0.00 0.00 48 1017.3
20260902161221 32 32 6.4 16.1 0.00 0.00 0.00 48 1017.3
20260902161121 32 24 6.4 17.7 0.00 0.00 0.00 48 1017.3
20260902161021 32 210 6.4 17.7 0.00 0.00 0.00 48 1017.3
20260902160921 32 159 8.0 17.7 0.00 0.00 0.00 48 1017.3
20260902160821 32 191 9.7 17.7 0.00 0.00 0.00 48 1017.3
20260902160721 32 297 3.2 17.7 0.00 0.00 0.00 50 1017.3
20260902160621 32 278 4.8 17.7 0.00 0.00 0.00 50 1017.3
20260902160521 32 169 1.6 17.7 0.00 0.00 0.00 49 1017.3
20260902160421 32 288 3.2 17.7 0.00 0.00 0.00 49 1017.3
20260902160321 32 269 6.4 17.7 0.00 0.00 0.00 48 1017.3
20260902160221 32 328 8.0 17.7 0.00 0.00 0.00 48 1017.3
20260902160121 32 201 9.7 16.1 0.00 0.00 0.00 48 1017.3
20260902160021 32 179 8.0 14.5 0.00 0.00 0.00 48 1017.3
20260902155921 32 221 8.0 14.5 0.00 0.00 0.00 49 1017.3
20260902155821 32 248 1.6 14.5 0.00 0.00 0.00 52 1017.3
20260902155721 32 173 3.2 14.5 0.00 0.00 0.00 52 1017.3
20260902155621 32 302 3.2 14.5 0.00 0.00 0.00 52 1017.3
20260902155521 32 13 1.6 14.5 0.00 0.00 0.00 52 1017.7
20260902155421 32 105 1.6 14.5 0.00 0.00 0.00 51 1017.3
20260902155321 32 269 3.2 14.5 0.00 0.00 0.00 51 1017.7
20260902155221 32 285 4.8 14.5 0.00 0.00 0.00 52 1017.3
20260902155121 32 194 4.8 14.5 0.00 0.00 0.00 52 1017.3
20260902155021 32 200 8.0 14.5 0.00 0.00 0.00 51 1017.3
20260902154921 32 139 0.0 17.7 0.00 0.00 0.00 53 1017.3
20260902154821 32 342 1.6 17.7 0.00 0.00 0.00 53 1017.3
20260902154721 32 323 3.2 17.7 0.00 0.00 0.00 52 1017.3
20260902154621 32 340 3.2 17.7 0.00 0.00 0.00 52 1017.3
20260902154521 32 246 4.8 17.7 0.00 0.00 0.00 52 1017.3
20260902154421 32 315 8.0 17.7 0.00 0.00 0.00 52 1017.3
20260902154321 32 221 3.2 17.7 0.00 0.00 0.00 52 1017.3
20260902154221 32 219 1.6 17.7 0.00 0.00 0.00 51 1017.3
20260902154121 31 156 6.4 17.7 0.00 0.00 0.00 51 1017.3
20260902154021 31 180 8.0 17.7 0.00 0.00 0.00 50 1017.3
20260902153921 31 166 8.0 12.9 0.00 0.00 0.00 51 1017.3
20260902153821 31 190 8.0 12.9 0.00 0.00 0.00 52 1017.3
20260902153721 31 177 6.4 12.9 0.00 0.00 0.00 52 1017.3
20260902153621 31 200 6.4 12.9 0.00 0.00 0.00 52 1017.3
20260902153521 31 197 4.8 12.9 0.00 0.00 0.00 53 1017.3
20260902153421 31 111 0.0 12.9 0.00 0.00 0.00 54 1017.3
20260902153321 31 259 1.6 12.9 0.00 0.00 0.00 54 1017.3
20260902153221 31 210 8.0 12.9 0.00 0.00 0.00 53 1017.3
20260902153121 31 250 6.4 12.9 0.00 0.00 0.00 55 1017.3
20260902153021 31 232 3.2 12.9 0.00 0.00 0.00 54 1017.7
20260902152921 31 73 0.0 12.9 0.00 0.00 0.00 56 1017.3
20260902152821 31 338 1.6 12.9 0.00 0.00 0.00 55 1017.3
20260902152721 31 264 4.8 12.9 0.00 0.00 0.00 55 1017.3
20260902152621 31 274 4.8 12.9 0.00 0.00 0.00 55 1017.3
20260902152521 31 236 4.8 12.9 0.00 0.00 0.00 55 1017.3
20260902152421 31 280 8.0 12.9 0.00 0.00 0.00 56 1017.3
20260902152321 31 159 6.4 12.9 0.00 0.00 0.00 56 1017.3
20260902152221 31 198 6.4 12.9 0.00 0.00 0.00 55 1017.3
20260902152121 31 194 8.0 12.9 0.00 0.00 0.00 55 1017.3
20260902152021 31 259 4.8 12.9 0.00 0.00 0.00 57 1017.3
20260902151921 31 309 4.8 12.9 0.00 0.00 0.00 57 1017.3
20260902151821 30 160 4.8 12.9 0.00 0.00 0.00 57 1017.3
20260902151721 30 187 1.6 12.9 0.00 0.00 0.00 58 1017.3
20260902151621 30 231 3.2 12.9 0.00 0.00 0.00 57 1017.3
20260902151521 30 285 4.8 12.9 0.00 0.00 0.00 57 1017.3
20260902151421 30 264 6.4 12.9 0.00 0.00 0.00 57 1017.3
20260902151321 30 264 3.2 11.3 0.00 0.00 0.00 57 1017.3
20260902151221 30 217 6.4 11.3 0.00 0.00 0.00 58 1017.3
20260902151121 30 197 3.2 9.7 0.00 0.00 0.00 58 1017.7
20260902151021 30 311 1.6 9.7 0.00 0.00 0.00 58 1017.7
20260902150921 30 194 4.8 11.3 0.00 0.00 0.00 57 1017.3
20260902150821 30 259 4.8 11.3 0.00 0.00 0.00 57 1017.3
20260902150722 30 269 3.2 11.3 0.00 0.00 0.00 58 1017.3
20260902150621 30 222 1.6 11.3 0.00 0.00 0.00 58 1017.3
20260902150521 30 256 4.8 11.3 0.00 0.00 0.00 58 1017.3
20260902150421 30 217 3.2 11.3 0.00 0.00 0.00 58 1017.3
20260902150321 30 84 1.6 11.3 0.00 0.00 0.00 58 1017.3
20260902150221 30 193 3.2 11.3 0.00 0.00 0.00 58 1017.3
20260902150121 30 277 6.4 11.3 0.00 0.00 0.00 58 1017.3
20260902150021 30 256 6.4 14.5 0.00 0.00 0.00 58 1017.3
20260902145921 30 309 4.8 14.5 0.00 0.00 0.00 60 1017.7
20260902145821 30 319 3.2 14.5 0.00 0.00 0.00 60 1017.3
20260902145721 30 232 1.6 14.5 0.00 0.00 0.00 60 1017.3
20260902145621 30 287 3.2 14.5 0.00 0.00 0.00 60 1017.3
20260902145521 30 315 1.6 14.5 0.00 0.00 0.00 59 1017.3
20260902145421 30 309 3.2 14.5 0.00 0.00 0.00 59 1017.7
20260902145321 30 229 1.6 14.5 0.00 0.00 0.00 59 1017.3
20260902145221 30 283 3.2 14.5 0.00 0.00 0.00 60 1017.3
20260902145121 30 249 6.4 14.5 0.00 0.00 0.00 59 1017.3
20260902145021 30 37 3.2 9.7 0.00 0.00 0.00 60 1017.3
20260902144921 30 204 1.6 9.7 0.00 0.00 0.00 60 1017.7
20260902144821 29 82 1.6 9.7 0.00 0.00 0.00 61 1017.3
20260902144721 29 134 3.2 11.3 0.00 0.00 0.00 60 1017.7
20260902144621 29 308 6.4 12.9 0.00 0.00 0.00 60 1017.3
20260902144521 29 333 3.2 12.9 0.00 0.00 0.00 61 1017.7
20260902144421 29 333 1.6 12.9 0.00 0.00 0.00 61 1017.7
20260902144321 29 283 3.2 12.9 0.00 0.00 0.00 61 1017.7
20260902144221 29 333 3.2 12.9 0.00 0.00 0.00 61 1017.7
20260902144121 29 3 1.6 12.9 0.00 0.00 0.00 61 1017.7
20260902144021 29 207 3.2 12.9 0.00 0.00 0.00 61 1017.3
20260902143921 29 346 3.2 12.9 0.00 0.00 0.00 61 1017.7
20260902143821 29 228 4.8 12.9 0.00 0.00 0.00 60 1017.7
20260902143721 29 253 4.8 12.9 0.00 0.00 0.00 61 1017.7
20260902143621 28 287 3.2 9.7 0.00 0.00 0.00 62 1017.3
20260902143521 29 298 3.2 9.7 0.00 0.00 0.00 62 1017.7
20260902143421 28 173 1.6 9.7 0.00 0.00 0.00 62 1017.3
20260902143321 28 198 4.8 9.7 0.00 0.00 0.00 61 1017.3
20260902143221 28 255 3.2 9.7 0.00 0.00 0.00 62 1017.3
20260902143121 28 226 4.8 9.7 0.00 0.00 0.00 61 1017.7
20260902143021 28 198 3.2 9.7 0.00 0.00 0.00 62 1017.7
20260902142921 28 277 6.4 9.7 0.00 0.00 0.00 62 1017.7
20260902142821 28 203 6.4 9.7 0.00 0.00 0.00 62 1017.7
20260902142721 28 273 1.6 9.7 0.00 0.00 0.00 63 1017.7
20260902142621 28 315 3.2 11.3 0.00 0.00 0.00 63 1017.7
20260902142521 28 257 3.2 12.9 0.00 0.00 0.00 63 1017.7
20260902142421 28 203 3.2 12.9 0.00 0.00 0.00 63 1017.7
20260902142321 28 305 3.2 12.9 0.00 0.00 0.00 63 1017.7
20260902142221 28 270 4.8 12.9 0.00 0.00 0.00 63 1017.7
20260902142121 28 226 4.8 12.9 0.00 0.00 0.00 63 1017.7
20260902142021 28 332 3.2 12.9 0.00 0.00 0.00 63 1017.7
20260902141921 28 285 3.2 12.9 0.00 0.00 0.00 63 1017.7
20260902141821 28 132 1.6 14.5 0.00 0.00 0.00 63 1017.7
20260902141721 28 302 6.4 14.5 0.00 0.00 0.00 63 1017.7
20260902141621 28 203 8.0 14.5 0.00 0.00 0.00 63 1017.7
20260902141521 28 225 4.8 14.5 0.00 0.00 0.00 64 1017.3
20260902141421 28 291 4.8 14.5 0.00 0.00 0.00 64 1017.3
20260902141321 28 322 3.2 14.5 0.00 0.00 0.00 64 1017.7
20260902141221 28 113 4.8 14.5 0.00 0.00 0.00 64 1017.7
20260902141121 28 188 4.8 14.5 0.00 0.00 0.00 64 1017.3
20260902141021 28 312 6.4 14.5 0.00 0.00 0.00 64 1017.7
20260902140921 28 194 6.4 14.5 0.00 0.00 0.00 64 1017.7
20260902140821 28 129 3.2 11.3 0.00 0.00 0.00 65 1017.7
20260902140721 28 172 3.2 11.3 0.00 0.00 0.00 65 1017.7
20260902140621 28 259 6.4 11.3 0.00 0.00 0.00 65 1017.7
20260902140521 28 291 6.4 11.3 0.00 0.00 0.00 65 1017.7
20260902140421 28 304 3.2 9.7 0.00 0.00 0.00 65 1017.3
20260902140321 28 250 1.6 9.7 0.00 0.00 0.00 65 1017.3
20260902140221 28 236 3.2 9.7 0.00 0.00 0.00 65 1017.7
20260902140121 27 263 3.2 9.7 0.00 0.00 0.00 65 1017.7
20260902140021 27 212 3.2 9.7 0.00 0.00 0.00 65 1017.7
20260902135921 28 308 4.8 9.7 0.00 0.00 0.00 65 1017.7
20260902135821 27 280 4.8 9.7 0.00 0.00 0.00 66 1017.7
20260902135721 27 166 1.6 11.3 0.00 0.00 0.00 67 1017.3
20260902135621 27 352 0.0 11.3 0.00 0.00 0.00 67 1017.3
20260902135521 27 352 0.0 11.3 0.00 0.00 0.00 67 1017.7
20260902135421 27 352 3.2 11.3 0.00 0.00 0.00 67 1017.7
20260902135321 27 332 3.2 11.3 0.00 0.00 0.00 67 1017.3
20260902135221 27 302 3.2 11.3 0.00 0.00 0.00 67 1017.7
20260902135121 27 314 4.8 11.3 0.00 0.00 0.00 67 1017.7
20260902135021 27 53 3.2 11.3 0.00 0.00 0.00 68 1017.7
20260902134921 27 176 6.4 11.3 0.00 0.00 0.00 68 1017.7
20260902134821 27 110 6.4 11.3 0.00 0.00 0.00 67 1017.7
20260902134721 27 277 3.2 9.7 0.00 0.00 0.00 68 1017.7
20260902134621 27 229 6.4 9.7 0.00 0.00 0.00 67 1017.7
20260902134521 27 195 3.2 9.7 0.00 0.00 0.00 68 1017.7
20260902134421 27 316 6.4 9.7 0.00 0.00 0.00 68 1017.7
20260902134321 27 273 3.2 9.7 0.00 0.00 0.00 69 1017.7
20260902134221 27 288 1.6 9.7 0.00 0.00 0.00 69 1017.7
20260902134121 27 240 1.6 9.7 0.00 0.00 0.00 69 1017.7
20260902134021 27 169 3.2 9.7 0.00 0.00 0.00 69 1017.7
20260902133921 27 44 3.2 9.7 0.00 0.00 0.00 69 1017.7
20260902133821 27 134 1.6 9.7 0.00 0.00 0.00 70 1017.7
20260902133721 27 184 4.8 9.7 0.00 0.00 0.00 70 1017.7
20260902133621 26 187 6.4 9.7 0.00 0.00 0.00 70 1017.7
20260902133521 26 219 3.2 8.0 0.00 0.00 0.00 70 1017.3
20260902133421 26 260 1.6 14.5 0.00 0.00 0.00 70 1017.7
20260902133321 27 297 3.2 14.5 0.00 0.00 0.00 70 1017.3
20260902133221 27 77 0.0 14.5 0.00 0.00 0.00 71 1017.7
20260902133121 26 77 1.6 14.5 0.00 0.00 0.00 71 1017.7
20260902133021 26 336 4.8 14.5 0.00 0.00 0.00 71 1017.7
20260902132921 26 214 3.2 14.5 0.00 0.00 0.00 71 1017.7
20260902132821 26 246 4.8 14.5 0.00 0.00 0.00 71 1017.3
20260902132721 26 156 4.8 14.5 0.00 0.00 0.00 70 1017.3
20260902132621 26 236 4.8 14.5 0.00 0.00 0.00 70 1017.3
20260902132521 26 181 6.4 14.5 0.00 0.00 0.00 70 1017.3
20260902132421 26 232 4.8 11.3 0.00 0.00 0.00 71 1017.3
20260902132321 26 218 3.2 12.9 0.00 0.00 0.00 71 1017.3
20260902132221 26 174 8.0 12.9 0.00 0.00 0.00 71 1017.3
20260902132121 26 152 3.2 12.9 0.00 0.00 0.00 71 1017.3
20260902132021 26 356 4.8 12.9 0.00 0.00 0.00 71 1017.7
20260902131921 26 224 3.2 12.9 0.00 0.00 0.00 71 1017.3
20260902131821 26 285 3.2 12.9 0.00 0.00 0.00 72 1017.7
20260902131721 26 188 6.4 12.9 0.00 0.00 0.00 72 1017.3
20260902131621 26 195 3.2 12.9 0.00 0.00 0.00 71 1017.3
20260902131521 26 260 3.2 12.9 0.00 0.00 0.00 72 1017.3
20260902131421 26 238 8.0 12.9 0.00 0.00 0.00 72 1017.3
20260902131321 26 211 4.8 9.7 0.00 0.00 0.00 71 1017.3
20260902131221 26 160 3.2 9.7 0.00 0.00 0.00 72 1017.7
20260902131121 26 342 4.8 9.7 0.00 0.00 0.00 72 1017.3
20260902131021 26 187 4.8 9.7 0.00 0.00 0.00 72 1017.3
20260902130921 26 215 1.6 9.7 0.00 0.00 0.00 73 1017.7
20260902130821 26 311 4.8 12.9 0.00 0.00 0.00 73 1017.7
20260902130721 26 214 4.8 12.9 0.00 0.00 0.00 72 1017.3
20260902130621 26 198 3.2 12.9 0.00 0.00 0.00 73 1017.7
20260902130521 26 184 6.4 12.9 0.00 0.00 0.00 72 1017.7
20260902130421 26 150 3.2 12.9 0.00 0.00 0.00 73 1017.7
20260902130321 26 174 6.4 12.9 0.00 0.00 0.00 73 1017.7
20260902130221 26 173 4.8 12.9 0.00 0.00 0.00 73 1017.7
20260902130121 26 60 1.6 12.9 0.00 0.00 0.00 74 1017.7
20260902130021 26 222 3.2 12.9 0.00 0.00 0.00 74 1017.7
20260902125921 26 179 8.0 12.9 0.00 0.00 0.00 74 1017.7
20260902125821 26 203 3.2 11.3 0.00 0.00 0.00 75 1017.7
20260902125721 26 142 3.2 11.3 0.00 0.00 0.00 75 1017.7
20260902125621 25 221 1.6 11.3 0.00 0.00 0.00 75 1017.7
20260902125521 25 231 3.2 11.3 0.00 0.00 0.00 75 1017.7
20260902125421 25 167 3.2 11.3 0.00 0.00 0.00 75 1017.7
20260902125321 25 205 6.4 11.3 0.00 0.00 0.00 75 1017.7
20260902125221 25 163 4.8 11.3 0.00 0.00 0.00 76 1017.3
20260902125121 25 166 3.2 11.3 0.00 0.00 0.00 76 1017.3
20260902125021 25 158 3.2 12.9 0.00 0.00 0.00 76 1017.7
20260902124921 25 217 4.8 12.9 0.00 0.00 0.00 76 1017.7
20260902124821 25 205 4.8 12.9 0.00 0.00 0.00 76 1017.7
20260902124721 25 215 6.4 12.9 0.00 0.00 0.00 76 1017.7
20260902124621 25 194 8.0 12.9 0.00 0.00 0.00 76 1017.7
20260902124521 25 204 4.8 12.9 0.00 0.00 0.00 77 1017.7
20260902124421 25 208 6.4 12.9 0.00 0.00 0.00 77 1017.7
20260902124321 25 187 4.8 12.9 0.00 0.00 0.00 77 1017.7
20260902124221 25 222 6.4 12.9 0.00 0.00 0.00 77 1017.7
20260902124121 25 186 9.7 12.9 0.00 0.00 0.00 77 1017.7
20260902124021 25 208 4.8 9.7 0.00 0.00 0.00 78 1017.3
20260902123921 25 177 6.4 9.7 0.00 0.00 0.00 78 1017.3
20260902123821 25 195 4.8 9.7 0.00 0.00 0.00 78 1017.7
20260902123721 25 197 4.8 9.7 0.00 0.00 0.00 78 1017.7
20260902123621 25 181 4.8 9.7 0.00 0.00 0.00 78 1017.7
20260902123521 25 198 6.4 9.7 0.00 0.00 0.00 78 1017.7
20260902123421 25 184 4.8 9.7 0.00 0.00 0.00 78 1017.7
20260902123321 25 201 6.4 9.7 0.00 0.00 0.00 78 1017.3
20260902123221 25 218 6.4 9.7 0.00 0.00 0.00 79 1017.7
20260902123121 25 242 6.4 9.7 0.00 0.00 0.00 79 1017.7
20260902123021 25 204 6.4 9.7 0.00 0.00 0.00 79 1017.3
20260902122921 25 208 4.8 9.7 0.00 0.00 0.00 79 1017.7
20260902122821 25 208 4.8 9.7 0.00 0.00 0.00 79 1017.7
20260902122721 25 225 4.8 9.7 0.00 0.00 0.00 79 1017.7
20260902122621 25 194 1.6 9.7 0.00 0.00 0.00 80 1017.3
20260902122521 25 205 6.4 9.7 0.00 0.00 0.00 80 1017.7
20260902122421 24 207 4.8 9.7 0.00 0.00 0.00 80 1017.3
20260902122321 24 184 3.2 9.7 0.00 0.00 0.00 80 1017.7
20260902122221 24 167 6.4 9.7 0.00 0.00 0.00 80 1017.3
20260902122121 24 169 6.4 9.7 0.00 0.00 0.00 80 1017.3
20260902122021 24 186 6.4 9.7 0.00 0.00 0.00 80 1017.3
20260902121921 24 201 6.4 9.7 0.00 0.00 0.00 80 1017.3
20260902121821 24 203 4.8 9.7 0.00 0.00 0.00 80 1017.3
20260902121721 24 198 4.8 9.7 0.00 0.00 0.00 80 1017.3
20260902121621 24 166 4.8 9.7 0.00 0.00 0.00 80 1017.3
20260902121521 24 136 3.2 9.7 0.00 0.00 0.00 80 1017.3
20260902121421 24 195 3.2 9.7 0.00 0.00 0.00 81 1017.3
20260902121321 24 173 3.2 9.7 0.00 0.00 0.00 81 1017.3
20260902121221 24 190 6.4 11.3 0.00 0.00 0.00 81 1017.3
20260902121121 24 215 6.4 11.3 0.00 0.00 0.00 81 1017.3
20260902121021 24 205 8.0 11.3 0.00 0.00 0.00 81 1017.3
20260902120921 24 181 4.8 11.3 0.00 0.00 0.00 81 1017.3
20260902120821 24 195 4.8 11.3 0.00 0.00 0.00 81 1017.3
20260902120721 24 187 3.2 11.3 0.00 0.00 0.00 81 1017.3
20260902120621 24 198 4.8 11.3 0.00 0.00 0.00 81 1017.3
20260902120521 24 187 6.4 11.3 0.00 0.00 0.00 81 1017.3
20260902120421 24 204 6.4 11.3 0.00 0.00 0.00 81 1017.3
20260902120321 24 180 6.4 11.3 0.00 0.00 0.00 81 1017.3
20260902120221 24 193 4.8 9.7 0.00 0.00 0.00 81 1017.3
20260902120121 24 231 6.4 9.7 0.00 0.00 0.00 82 1017.3
20260902120021 24 201 3.2 8.0 0.00 0.00 0.00 82 1017.3
20260902115921 24 201 3.2 8.0 0.00 0.00 0.00 82 1017.3
20260902115821 24 243 3.2 8.0 0.00 0.00 0.00 82 1017.3
20260902115721 24 187 3.2 8.0 0.00 0.00 0.00 82 1017.3
20260902115621 23 212 4.8 8.0 0.00 0.00 0.00 82 1017.3
20260902115521 23 194 6.4 8.0 0.00 0.00 0.00 82 1017.3
20260902115421 24 174 4.8 8.0 0.00 0.00 0.00 82 1017.3
20260902115321 23 210 4.8 8.0 0.00 0.00 0.00 82 1017.3
20260902115221 23 221 3.2 8.0 0.00 0.00 0.00 82 1017.3
20260902115121 23 186 4.8 8.0 0.00 0.00 0.00 82 1017.3
20260902115021 23 184 3.2 8.0 0.00 0.00 0.00 82 1017.3
20260902114921 23 177 3.2 8.0 0.00 0.00 0.00 82 1017.3
20260902114821 23 205 3.2 8.0 0.00 0.00 0.00 82 1017.3
20260902114721 23 153 4.8 8.0 0.00 0.00 0.00 82 1017.3
20260902114621 23 210 4.8 9.7 0.00 0.00 0.00 82 1017.3
20260902114521 23 162 4.8 9.7 0.00 0.00 0.00 82 1017.3
20260902114421 23 111 3.2 9.7 0.00 0.00 0.00 82 1017.3
20260902114321 23 205 3.2 9.7 0.00 0.00 0.00 82 1017.3
20260902114221 23 233 6.4 9.7 0.00 0.00 0.00 82 1017.3
20260902114121 23 221 4.8 9.7 0.00 0.00 0.00 82 1017.3
20260902114021 23 203 4.8 9.7 0.00 0.00 0.00 82 1017.3
20260902113921 23 179 3.2 9.7 0.00 0.00 0.00 82 1017.3
20260902113821 23 205 4.8 9.7 0.00 0.00 0.00 83 1017.3
20260902113721 23 204 6.4 9.7 0.00 0.00 0.00 83 1017.3
20260902113621 23 158 6.4 8.0 0.00 0.00 0.00 83 1017.0
20260902113521 23 201 3.2 8.0 0.00 0.00 0.00 83 1017.3
20260902113421 23 188 4.8 8.0 0.00 0.00 0.00 83 1017.0
20260902113321 23 194 4.8 8.0 0.00 0.00 0.00 83 1017.0
20260902113221 23 184 4.8 8.0 0.00 0.00 0.00 83 1017.0
20260902113121 23 197 4.8 8.0 0.00 0.00 0.00 83 1017.0
20260902113021 23 163 3.2 8.0 0.00 0.00 0.00 83 1017.0
20260902112921 23 186 6.4 8.0 0.00 0.00 0.00 83 1017.0
20260902112821 23 205 4.8 8.0 0.00 0.00 0.00 83 1017.0
20260902112721 23 208 4.8 8.0 0.00 0.00 0.00 83 1017.0
20260902112621 23 176 3.2 8.0 0.00 0.00 0.00 83 1017.0
20260902112521 23 212 6.4 8.0 0.00 0.00 0.00 83 1017.0
20260902112421 23 205 3.2 8.0 0.00 0.00 0.00 83 1017.0
20260902112321 23 198 4.8 8.0 0.00 0.00 0.00 83 1017.0
20260902112221 23 166 3.2 8.0 0.00 0.00 0.00 83 1017.0
20260902112121 23 170 3.2 8.0 0.00 0.00 0.00 83 1017.0
20260902112021 23 190 3.2 8.0 0.00 0.00 0.00 83 1017.0
20260902111921 23 142 1.6 8.0 0.00 0.00 0.00 83 1017.0
20260902111821 23 198 6.4 11.3 0.00 0.00 0.00 83 1017.0
20260902111721 23 197 4.8 11.3 0.00 0.00 0.00 83 1017.0
20260902111621 23 184 6.4 11.3 0.00 0.00 0.00 83 1017.0
20260902111521 23 134 4.8 11.3 0.00 0.00 0.00 83 1017.0
20260902111421 23 148 3.2 11.3 0.00 0.00 0.00 82 1017.0
20260902111321 23 145 4.8 11.3 0.00 0.00 0.00 83 1017.0
20260902111221 23 193 4.8 11.3 0.00 0.00 0.00 83 1017.0
20260902111121 23 211 3.2 11.3 0.00 0.00 0.00 82 1017.0
20260902111021 23 191 4.8 11.3 0.00 0.00 0.00 83 1017.0
20260902110921 23 179 8.0 11.3 0.00 0.00 0.00 83 1017.0
20260902110821 23 172 6.4 9.7 0.00 0.00 0.00 82 1017.0
20260902110721 23 210 6.4 8.0 0.00 0.00 0.00 82 1017.0
20260902110621 23 193 4.8 8.0 0.00 0.00 0.00 82 1017.0
20260902110521 23 218 0.0 8.0 0.00 0.00 0.00 82 1017.0
20260902110421 23 218 1.6 8.0 0.00 0.00 0.00 82 1017.0
20260902110321 23 173 3.2 8.0 0.00 0.00 0.00 82 1017.0
20260902110221 23 166 3.2 8.0 0.00 0.00 0.00 82 1017.0
20260902110121 23 172 4.8 8.0 0.00 0.00 0.00 82 1017.0
20260902110021 23 152 3.2 8.0 0.00 0.00 0.00 82 1017.0
20260902105921 23 211 1.6 8.0 0.00 0.00 0.00 82 1017.0
20260902105821 23 214 4.8 8.0 0.00 0.00 0.00 82 1017.0
20260902105721 23 193 1.6 8.0 0.00 0.00 0.00 82 1017.0
20260902105621 23 179 1.6 8.0 0.00 0.00 0.00 82 1017.0
20260902105521 23 256 4.8 8.0 0.00 0.00 0.00 82 1017.0
20260902105421 23 169 3.2 8.0 0.00 0.00 0.00 82 1017.0
20260902105321 23 138 3.2 11.3 0.00 0.00 0.00 82 1017.0
20260902105221 23 197 6.4 11.3 0.00 0.00 0.00 82 1017.0
20260902105121 23 210 6.4 11.3 0.00 0.00 0.00 82 1017.0
20260902105021 23 194 4.8 11.3 0.00 0.00 0.00 82 1017.0
20260902104921 23 203 6.4 11.3 0.00 0.00 0.00 82 1017.0
20260902104821 23 187 3.2 11.3 0.00 0.00 0.00 82 1017.0
20260902104721 23 245 1.6 11.3 0.00 0.00 0.00 82 1017.0
20260902104621 23 212 4.8 11.3 0.00 0.00 0.00 82 1017.0
20260902104521 23 190 3.2 11.3 0.00 0.00 0.00 82 1017.0
20260902104421 23 203 8.0 11.3 0.00 0.00 0.00 82 1017.0
20260902104321 23 129 3.2 9.7 0.00 0.00 0.00 82 1017.0
20260902104221 23 163 6.4 9.7 0.00 0.00 0.00 82 1017.0
20260902104121 23 188 4.8 9.7 0.00 0.00 0.00 82 1017.0
20260902104021 23 187 3.2 9.7 0.00 0.00 0.00 82 1017.0
20260902103921 23 165 4.8 9.7 0.00 0.00 0.00 82 1017.0
20260902103821 23 215 3.2 9.7 0.00 0.00 0.00 82 1017.0
20260902103721 23 191 4.8 9.7 0.00 0.00 0.00 83 1017.0
20260902103621 23 232 4.8 9.7 0.00 0.00 0.00 82 1017.0
20260902103521 23 148 4.8 9.7 0.00 0.00 0.00 82 1017.0
20260902103421 23 152 4.8 9.7 0.00 0.00 0.00 82 1017.0
20260902103321 23 201 4.8 9.7 0.00 0.00 0.00 82 1017.0
20260902103221 23 128 1.6 9.7 0.00 0.00 0.00 82 1017.0
20260902103121 23 280 3.2 9.7 0.00 0.00 0.00 82 1017.0
20260902103021 23 219 3.2 12.9 0.00 0.00 0.00 82 1016.6
20260902102921 23 139 6.4 12.9 0.00 0.00 0.00 82 1016.6
20260902102821 23 212 4.8 12.9 0.00 0.00 0.00 82 1016.6
20260902102721 23 150 3.2 12.9 0.00 0.00 0.00 82 1017.0
20260902102621 23 153 1.6 12.9 0.00 0.00 0.00 82 1016.6
20260902102521 23 156 3.2 12.9 0.00 0.00 0.00 82 1016.6
20260902102421 23 204 1.6 12.9 0.00 0.00 0.00 82 1016.6
20260902102321 23 158 4.8 12.9 0.00 0.00 0.00 82 1016.6
20260902102221 23 187 6.4 12.9 0.00 0.00 0.00 82 1016.6
20260902102121 23 181 6.4 12.9 0.00 0.00 0.00 82 1016.6
20260902102021 23 205 4.8 9.7 0.00 0.00 0.00 82 1016.6
20260902101921 23 188 6.4 9.7 0.00 0.00 0.00 82 1016.6
20260902101821 23 198 4.8 9.7 0.00 0.00 0.00 82 1016.6
20260902101721 23 156 3.2 11.3 0.00 0.00 0.00 82 1016.6
20260902101621 23 162 6.4 11.3 0.00 0.00 0.00 82 1016.6
20260902101521 24 155 1.6 11.3 0.00 0.00 0.00 82 1017.0
20260902101421 23 163 3.2 11.3 0.00 0.00 0.00 82 1016.6
20260902101321 23 201 6.4 11.3 0.00 0.00 0.00 82 1016.6
20260902101221 24 155 3.2 11.3 0.00 0.00 0.00 82 1016.6
20260902101121 24 203 4.8 11.3 0.00 0.00 0.00 82 1016.6
20260902101021 23 200 6.4 11.3 0.00 0.00 0.00 82 1016.6
20260902100921 23 167 6.4 11.3 0.00 0.00 0.00 82 1016.6
20260902100821 24 181 4.8 11.3 0.00 0.00 0.00 82 1016.6
20260902100721 24 190 3.2 9.7 0.00 0.00 0.00 82 1016.6
20260902100621 24 188 3.2 9.7 0.00 0.00 0.00 82 1016.6
20260902100521 24 215 4.8 9.7 0.00 0.00 0.00 82 1016.6
20260902100421 24 211 4.8 9.7 0.00 0.00 0.00 82 1016.6
20260902100321 24 193 4.8 9.7 0.00 0.00 0.00 82 1016.6
20260902100221 24 183 4.8 9.7 0.00 0.00 0.00 82 1016.6
20260902100121 24 225 4.8 9.7 0.00 0.00 0.00 82 1016.6
20260902100021 24 190 4.8 9.7 0.00 0.00 0.00 82 1016.6
20260902095921 24 181 4.8 9.7 0.00 0.00 0.00 82 1016.6
20260902095821 24 138 4.8 9.7 0.00 0.00 0.00 82 1016.6
20260902095721 24 195 6.4 9.7 0.00 0.00 0.00 82 1016.6
20260902095621 24 184 4.8 9.7 0.00 0.00 0.00 82 1017.0
20260902095521 24 173 4.8 9.7 0.00 0.00 0.00 82 1016.6
20260902095421 24 197 4.8 8.0 0.00 0.00 0.00 82 1016.6
20260902095321 24 176 6.4 8.0 0.00 0.00 0.00 82 1016.6
20260902095221 24 135 6.4 8.0 0.00 0.00 0.00 82 1016.6
20260902095121 24 149 4.8 8.0 0.00 0.00 0.00 82 1017.0
20260902095021 24 190 3.2 8.0 0.00 0.00 0.00 82 1016.6
20260902094921 24 162 3.2 8.0 0.00 0.00 0.00 82 1016.6
20260902094821 24 204 3.2 8.0 0.00 0.00 0.00 82 1016.6
20260902094721 24 205 3.2 8.0 0.00 0.00 0.00 82 1016.6
20260902094621 24 187 4.8 8.0 0.00 0.00 0.00 82 1016.6
20260902094521 24 181 4.8 8.0 0.00 0.00 0.00 82 1016.6
20260902094421 24 208 4.8 9.7 0.00 0.00 0.00 82 1016.6
20260902094321 24 152 3.2 9.7 0.00 0.00 0.00 81 1016.6
20260902094221 24 181 4.8 9.7 0.00 0.00 0.00 82 1016.6
20260902094121 24 188 4.8 9.7 0.00 0.00 0.00 81 1016.6
20260902094021 24 236 4.8 9.7 0.00 0.00 0.00 81 1016.6
20260902093921 24 149 4.8 9.7 0.00 0.00 0.00 82 1016.6
20260902093821 24 193 3.2 9.7 0.00 0.00 0.00 81 1016.6
20260902093721 24 186 3.2 9.7 0.00 0.00 0.00 82 1016.6
20260902093621 24 211 4.8 9.7 0.00 0.00 0.00 82 1016.6
20260902093521 24 169 6.4 9.7 0.00 0.00 0.00 82 1016.6
20260902093422 24 131 4.8 9.7 0.00 0.00 0.00 82 1016.6
20260902093321 24 174 4.8 9.7 0.00 0.00 0.00 82 1016.6
20260902093221 24 153 6.4 9.7 0.00 0.00 0.00 82 1016.6
20260902093121 24 198 4.8 9.7 0.00 0.00 0.00 82 1016.6
20260902093021 24 191 4.8 9.7 0.00 0.00 0.00 82 1016.6
20260902092921 24 201 4.8 9.7 0.00 0.00 0.00 82 1016.6
20260902092821 24 197 6.4 9.7 0.00 0.00 0.00 82 1016.6
20260902092721 24 186 4.8 8.0 0.00 0.00 0.00 82 1016.6
20260902092621 24 188 3.2 8.0 0.00 0.00 0.00 82 1016.6
20260902092521 24 155 4.8 8.0 0.00 0.00 0.00 82 1016.6
20260902092421 24 188 3.2 8.0 0.00 0.00 0.00 81 1017.0
20260902092321 24 173 4.8 8.0 0.00 0.00 0.00 82 1017.0
20260902092221 24 203 4.8 6.4 0.00 0.00 0.00 81 1017.0
20260902092121 24 198 4.8 4.8 0.00 0.00 0.00 81 1017.0
20260902092021 24 174 4.8 4.8 0.00 0.00 0.00 81 1017.0
20260902091921 24 179 3.2 4.8 0.00 0.00 0.00 81 1017.0
20260902091821 24 181 3.2 4.8 0.00 0.00 0.00 81 1016.6
20260902091721 24 128 3.2 4.8 0.00 0.00 0.00 81 1016.6
20260902091621 24 188 3.2 4.8 0.00 0.00 0.00 81 1016.6
20260902091521 24 170 3.2 4.8 0.00 0.00 0.00 81 1016.6
20260902091421 24 159 3.2 4.8 0.00 0.00 0.00 81 1016.6
20260902091321 24 197 3.2 4.8 0.00 0.00 0.00 81 1016.6
20260902091221 24 167 1.6 4.8 0.00 0.00 0.00 81 1016.6
20260902091121 24 146 1.6 4.8 0.00 0.00 0.00 80 1016.6
20260902091021 24 158 1.6 4.8 0.00 0.00 0.00 81 1016.6
20260902090921 24 163 1.6 4.8 0.00 0.00 0.00 80 1016.6
20260902090821 25 135 3.2 4.8 0.00 0.00 0.00 80 1016.6
20260902090721 25 145 3.2 4.8 0.00 0.00 0.00 80 1016.6
20260902090621 25 139 3.2 4.8 0.00 0.00 0.00 80 1016.6
20260902090521 25 145 3.2 4.8 0.00 0.00 0.00 80 1016.6
20260902090421 25 145 1.6 4.8 0.00 0.00 0.00 80 1016.6
20260902090321 25 152 3.2 4.8 0.00 0.00 0.00 80 1016.6
20260902090221 25 128 1.6 4.8 0.00 0.00 0.00 80 1016.6
20260902090121 25 83 1.6 4.8 0.00 0.00 0.00 80 1016.6
20260902090021 25 122 1.6 4.8 0.00 0.00 0.00 79 1016.6
20260902085921 25 120 3.2 4.8 0.00 0.00 0.00 79 1016.6
20260902085821 25 181 3.2 4.8 0.00 0.00 0.00 79 1016.6
20260902085721 25 150 0.0 3.2 0.00 0.00 0.00 79 1016.6
20260902085621 25 101 0.0 3.2 0.00 0.00 0.00 79 1016.6
20260902085521 25 101 0.0 3.2 0.00 0.00 0.00 79 1016.6
20260902085421 25 101 0.0 4.8 0.00 0.00 0.00 79 1016.6
20260902085321 25 101 0.0 4.8 0.00 0.00 0.00 79 1016.6
20260902085221 25 101 0.0 4.8 0.00 0.00 0.00 79 1016.6
20260902085121 25 117 0.0 4.8 0.00 0.00 0.00 79 1016.6
20260902085021 25 111 0.0 4.8 0.00 0.00 0.00 79 1016.6
20260902084921 25 117 0.0 4.8 0.00 0.00 0.00 79 1016.6
20260902084821 25 117 1.6 6.4 0.00 0.00 0.00 79 1016.6
20260902084721 25 146 1.6 6.4 0.00 0.00 0.00 79 1016.6
20260902084621 25 173 1.6 6.4 0.00 0.00 0.00 79 1016.6
20260902084521 25 165 3.2 6.4 0.00 0.00 0.00 79 1016.6
20260902084421 25 167 3.2 6.4 0.00 0.00 0.00 78 1016.6
20260902084321 25 208 3.2 6.4 0.00 0.00 0.00 79 1016.6
20260902084221 25 188 3.2 6.4 0.00 0.00 0.00 79 1016.6
20260902084121 25 124 0.0 6.4 0.00 0.00 0.00 78 1016.6
20260902084021 25 214 3.2 6.4 0.00 0.00 0.00 78 1016.6
20260902083921 25 172 3.2 6.4 0.00 0.00 0.00 78 1016.6
20260902083821 25 167 3.2 6.4 0.00 0.00 0.00 78 1016.6
20260902083721 25 212 3.2 6.4 0.00 0.00 0.00 78 1016.6
20260902083621 25 188 3.2 6.4 0.00 0.00 0.00 78 1016.6
20260902083521 25 184 4.8 6.4 0.00 0.00 0.00 78 1016.6
20260902083421 25 173 1.6 6.4 0.00 0.00 0.00 78 1016.6
20260902083321 25 166 1.6 6.4 0.00 0.00 0.00 78 1016.6
20260902083221 25 167 1.6 6.4 0.00 0.00 0.00 78 1016.6
20260902083121 25 159 1.6 6.4 0.00 0.00 0.00 78 1016.6
20260902083021 25 190 3.2 6.4 0.00 0.00 0.00 78 1016.6
20260902082921 25 193 4.8 6.4 0.00 0.00 0.00 78 1016.6
20260902082821 25 172 4.8 6.4 0.00 0.00 0.00 78 1016.6
20260902082721 25 176 4.8 6.4 0.00 0.00 0.00 78 1016.3
20260902082621 25 152 3.2 4.8 0.00 0.00 0.00 78 1016.3
20260902082521 25 162 4.8 4.8 0.00 0.00 0.00 78 1016.3
20260902082421 25 201 3.2 4.8 0.00 0.00 0.00 78 1016.3
20260902082321 25 174 3.2 4.8 0.00 0.00 0.00 78 1016.3
20260902082221 25 195 4.8 4.8 0.00 0.00 0.00 78 1016.3
20260902082121 25 153 3.2 4.8 0.00 0.00 0.00 78 1016.3
20260902082021 25 186 3.2 8.0 0.00 0.00 0.00 77 1016.3
20260902081921 25 191 1.6 8.0 0.00 0.00 0.00 77 1016.3
20260902081821 25 201 1.6 8.0 0.00 0.00 0.00 77 1016.3
20260902081721 25 159 3.2 8.0 0.00 0.00 0.00 77 1016.3
20260902081621 25 169 3.2 8.0 0.00 0.00 0.00 77 1016.3
20260902081521 25 166 3.2 8.0 0.00 0.00 0.00 77 1016.3
20260902081421 25 165 3.2 8.0 0.00 0.00 0.00 77 1016.3
20260902081321 25 159 3.2 8.0 0.00 0.00 0.00 77 1016.3
20260902081221 25 188 3.2 8.0 0.00 0.00 0.00 77 1016.6
20260902081121 25 211 4.8 8.0 0.00 0.00 0.00 77 1016.3
20260902081021 25 158 3.2 6.4 0.00 0.00 0.00 77 1016.3
20260902080921 25 200 4.8 6.4 0.00 0.00 0.00 77 1016.3
20260902080821 25 215 4.8 6.4 0.00 0.00 0.00 77 1016.3
20260902080721 25 163 4.8 6.4 0.00 0.00 0.00 77 1016.3
20260902080621 25 184 4.8 6.4 0.00 0.00 0.00 77 1016.3
20260902080521 25 173 3.2 6.4 0.00 0.00 0.00 77 1016.3
20260902080421 25 176 4.8 9.7 0.00 0.00 0.00 77 1016.3
20260902080321 25 179 3.2 9.7 0.00 0.00 0.00 77 1016.3
20260902080221 25 170 3.2 9.7 0.00 0.00 0.00 77 1016.3
20260902080121 25 200 3.2 9.7 0.00 0.00 0.00 77 1016.3
20260902080022 25 194 4.8 9.7 0.00 0.00 0.00 77 1016.3
20260902075921 25 174 4.8 9.7 0.00 0.00 0.00 77 1016.3
20260902075821 25 218 3.2 9.7 0.00 0.00 0.00 77 1016.3
20260902075721 25 167 3.2 9.7 0.00 0.00 0.00 77 1016.3
20260902075621 25 186 3.2 9.7 0.00 0.00 0.00 77 1016.3
20260902075521 25 233 4.8 9.7 0.00 0.00 0.00 77 1016.3
20260902075421 25 188 4.8 9.7 0.00 0.00 0.00 77 1016.3
20260902075321 25 193 4.8 8.0 0.00 0.00 0.00 77 1016.3
20260902075221 25 219 4.8 8.0 0.00 0.00 0.00 77 1016.3
20260902075121 25 201 4.8 8.0 0.00 0.00 0.00 77 1016.3
20260902075021 25 187 3.2 8.0 0.00 0.00 0.00 77 1016.3
20260902074921 25 195 4.8 8.0 0.00 0.00 0.00 77 1016.3
20260902074821 25 207 4.8 8.0 0.00 0.00 0.00 77 1016.3
20260902074721 25 152 4.8 9.7 0.00 0.00 0.00 77 1016.3
20260902074621 25 212 3.2 9.7 0.00 0.00 0.00 77 1016.3
20260902074521 25 188 4.8 9.7 0.00 0.00 0.00 77 1016.3
20260902074421 25 176 3.2 9.7 0.00 0.00 0.00 77 1016.3
20260902074321 25 197 4.8 9.7 0.00 0.00 0.00 77 1016.3
20260902074221 25 187 4.8 9.7 0.00 0.00 0.00 77 1016.3
20260902074121 25 174 4.8 9.7 0.00 0.00 0.00 77 1016.3
20260902074021 25 236 3.2 9.7 0.00 0.00 0.00 77 1016.3
20260902073921 25 132 4.8 9.7 0.00 0.00 0.00 77 1016.3
20260902073821 25 167 4.8 9.7 0.00 0.00 0.00 77 1016.3
20260902073721 25 233 4.8 9.7 0.00 0.00 0.00 77 1016.3
20260902073621 25 179 3.2 9.7 0.00 0.00 0.00 77 1016.3
20260902073521 25 210 3.2 9.7 0.00 0.00 0.00 77 1016.3
20260902073421 25 155 6.4 9.7 0.00 0.00 0.00 77 1016.3
20260902073321 25 203 3.2 8.0 0.00 0.00 0.00 77 1016.3
20260902073221 25 187 3.2 8.0 0.00 0.00 0.00 77 1016.3
20260902073121 25 155 4.8 8.0 0.00 0.00 0.00 77 1016.3
20260902073021 25 194 4.8 8.0 0.00 0.00 0.00 77 1016.3
20260902072921 25 148 3.2 8.0 0.00 0.00 0.00 77 1016.3
20260902072821 25 235 3.2 8.0 0.00 0.00 0.00 77 1016.3
20260902072721 25 195 4.8 8.0 0.00 0.00 0.00 77 1016.3
20260902072621 25 186 3.2 8.0 0.00 0.00 0.00 77 1016.3
20260902072521 25 197 4.8 8.0 0.00 0.00 0.00 77 1016.3
20260902072421 25 186 4.8 8.0 0.00 0.00 0.00 77 1016.3
20260902072321 25 203 3.2 8.0 0.00 0.00 0.00 77 1016.3
20260902072221 25 165 4.8 8.0 0.00 0.00 0.00 77 1016.3
20260902072121 25 200 4.8 8.0 0.00 0.00 0.00 77 1016.3
20260902072021 25 160 3.2 8.0 0.00 0.00 0.00 77 1016.3
20260902071921 25 197 3.2 8.0 0.00 0.00 0.00 77 1016.3
20260902071821 25 203 4.8 8.0 0.00 0.00 0.00 77 1016.3
20260902071721 25 198 3.2 8.0 0.00 0.00 0.00 77 1016.3
20260902071621 25 149 3.2 8.0 0.00 0.00 0.00 77 1016.3
20260902071521 25 197 4.8 6.4 0.00 0.00 0.00 77 1016.3
20260902071421 25 204 3.2 6.4 0.00 0.00 0.00 77 1016.3
20260902071321 25 210 3.2 8.0 0.00 0.00 0.00 77 1016.3
20260902071221 25 235 3.2 8.0 0.00 0.00 0.00 77 1016.3
20260902071121 25 195 4.8 9.7 0.00 0.00 0.00 77 1016.3
20260902071021 25 143 3.2 9.7 0.00 0.00 0.00 77 1016.3
20260902070921 25 184 3.2 9.7 0.00 0.00 0.00 77 1016.3
20260902070821 25 148 3.2 9.7 0.00 0.00 0.00 77 1016.3
20260902070721 25 191 3.2 9.7 0.00 0.00 0.00 77 1016.3
20260902070621 25 195 3.2 9.7 0.00 0.00 0.00 77 1016.3
20260902070521 25 183 4.8 9.7 0.00 0.00 0.00 77 1016.3
20260902070421 25 205 4.8 9.7 0.00 0.00 0.00 77 1016.3
20260902070321 25 215 4.8 9.7 0.00 0.00 0.00 77 1016.3
20260902070221 25 205 4.8 9.7 0.00 0.00 0.00 77 1016.3
20260902070121 25 191 4.8 8.0 0.00 0.00 0.00 77 1016.3
20260902070021 25 208 4.8 8.0 0.00 0.00 0.00 77 1016.3
20260902065921 25 188 4.8 8.0 0.00 0.00 0.00 77 1016.3
20260902065821 25 166 4.8 8.0 0.00 0.00 0.00 77 1016.3
20260902065721 25 159 3.2 6.4 0.00 0.00 0.00 77 1016.3
20260902065621 25 158 4.8 6.4 0.00 0.00 0.00 77 1016.3
20260902065521 25 173 3.2 6.4 0.00 0.00 0.00 77 1016.3
20260902065421 25 183 3.2 6.4 0.00 0.00 0.00 77 1016.3
20260902065321 25 184 3.2 6.4 0.00 0.00 0.00 77 1016.3
20260902065221 25 177 3.2 6.4 0.00 0.00 0.00 77 1016.3
20260902065121 25 215 4.8 6.4 0.00 0.00 0.00 77 1016.3
20260902065021 25 183 4.8 6.4 0.00 0.00 0.00 77 1016.3
20260902064921 25 184 4.8 6.4 0.00 0.00 0.00 77 1016.3
20260902064821 25 183 4.8 6.4 0.00 0.00 0.00 77 1016.3
20260902064721 25 203 4.8 6.4 0.00 0.00 0.00 77 1016.3
20260902064621 25 201 4.8 6.4 0.00 0.00 0.00 77 1016.3
20260902064521 25 135 4.8 6.4 0.00 0.00 0.00 77 1016.3
20260902064421 25 205 4.8 6.4 0.00 0.00 0.00 77 1016.3
20260902064321 25 188 4.8 6.4 0.00 0.00 0.00 77 1016.3
20260902064221 25 191 4.8 6.4 0.00 0.00 0.00 77 1016.6
20260902064121 25 198 3.2 4.8 0.00 0.00 0.00 77 1016.6
20260902064021 25 170 3.2 4.8 0.00 0.00 0.00 77 1016.6
20260902063921 26 158 1.6 4.8 0.00 0.00 0.00 77 1016.6
20260902063821 25 159 1.6 4.8 0.00 0.00 0.00 77 1016.6
20260902063721 25 173 1.6 6.4 0.00 0.00 0.00 77 1016.6
20260902063621 25 181 3.2 6.4 0.00 0.00 0.00 77 1016.6
20260902063519 26 212 1.6 6.4 0.00 0.00 0.00 77 1016.6
20260902063419 26 204 3.2 6.4 0.00 0.00 0.00 77 1016.6
20260902063319 26 195 1.6 6.4 0.00 0.00 0.00 77 1016.6
20260902063219 26 187 3.2 6.4 0.00 0.00 0.00 77 1016.6
20260902063119 26 169 3.2 6.4 0.00 0.00 0.00 77 1016.6
20260902062127 26 188 3.2 4.8 0.00 0.00 0.00 77 1016.6
20260902062027 26 128 1.6 4.8 0.00 0.00 0.00 77 1016.6
20260902061927 26 187 1.6 4.8 0.00 0.00 0.00 77 1016.6
20260902061827 26 125 0.0 4.8 0.00 0.00 0.00 76 1016.6
20260902061727 26 125 0.0 4.8 0.00 0.00 0.00 76 1016.6
20260902061627 26 125 1.6 4.8 0.00 0.00 0.00 76 1016.6
20260902061527 26 89 3.2 4.8 0.00 0.00 0.00 76 1016.6
20260902061427 26 138 1.6 4.8 0.00 0.00 0.00 76 1016.6
20260902061327 26 128 1.6 4.8 0.00 0.00 0.00 76 1016.6
20260902061227 26 179 1.6 4.8 0.00 0.00 0.00 76 1016.6
20260902061127 26 121 0.0 6.4 0.00 0.00 0.00 76 1016.6
20260902061027 26 138 1.6 6.4 0.00 0.00 0.00 76 1016.6
20260902060927 26 181 1.6 6.4 0.00 0.00 0.00 76 1017.0
20260902060827 26 113 1.6 6.4 0.00 0.00 0.00 76 1016.6
20260902060727 26 148 1.6 6.4 0.00 0.00 0.00 76 1016.6
20260902060627 26 160 0.0 6.4 0.00 0.00 0.00 76 1016.6
20260902060527 26 169 1.6 6.4 0.00 0.00 0.00 76 1017.0
20260902060427 26 183 1.6 6.4 0.00 0.00 0.00 76 1016.6
20260902060327 26 194 1.6 6.4 0.00 0.00 0.00 76 1016.6
20260902060227 26 203 3.2 6.4 0.00 0.00 0.00 76 1016.6
20260902060127 26 191 3.2 6.4 0.00 0.00 0.00 76 1016.6
20260902060027 26 193 3.2 6.4 0.00 0.00 0.00 76 1016.6
20260902055927 26 190 3.2 6.4 0.00 0.00 0.00 76 1016.6
20260902055827 26 160 3.2 6.4 0.00 0.00 0.00 76 1016.6
20260902055727 26 110 3.2 4.8 0.00 0.00 0.00 76 1016.6
20260902055627 26 193 3.2 4.8 0.00 0.00 0.00 76 1016.6
20260902055527 26 176 3.2 4.8 0.00 0.00 0.00 76 1016.6
20260902055427 26 204 3.2 4.8 0.00 0.00 0.00 75 1016.6
20260902055328 26 195 3.2 4.8 0.00 0.00 0.00 75 1016.6
20260902055227 26 194 3.2 4.8 0.00 0.00 0.00 75 1016.6
20260902055127 26 191 3.2 4.8 0.00 0.00 0.00 75 1016.6
20260902055027 26 184 3.2 4.8 0.00 0.00 0.00 75 1016.6
20260902054927 26 217 3.2 4.8 0.00 0.00 0.00 75 1016.6
20260902054827 26 142 3.2 4.8 0.00 0.00 0.00 75 1016.6
20260902054727 26 188 3.2 4.8 0.00 0.00 0.00 75 1016.6
20260902054627 26 184 3.2 4.8 0.00 0.00 0.00 75 1016.6
20260902054527 26 177 3.2 6.4 0.00 0.00 0.00 75 1016.6
20260902054427 26 160 3.2 6.4 0.00 0.00 0.00 75 1016.6
20260902054327 26 170 3.2 8.0 0.00 0.00 0.00 75 1016.6
20260902054227 26 180 3.2 8.0 0.00 0.00 0.00 75 1016.6
20260902054127 26 148 3.2 8.0 0.00 0.00 0.00 75 1016.6
20260902054027 26 152 3.2 8.0 0.00 0.00 0.00 75 1016.6
20260902053927 26 186 3.2 8.0 0.00 0.00 0.00 75 1016.6
20260902053827 26 194 3.2 8.0 0.00 0.00 0.00 75 1016.6
20260902053727 26 217 3.2 8.0 0.00 0.00 0.00 75 1016.6
20260902053627 26 188 4.8 8.0 0.00 0.00 0.00 75 1016.6
20260902053527 26 163 4.8 8.0 0.00 0.00 0.00 75 1016.6
20260902053427 26 158 4.8 8.0 0.00 0.00 0.00 75 1016.6
20260902053327 26 212 4.8 8.0 0.00 0.00 0.00 75 1016.6
20260902053227 26 235 4.8 8.0 0.00 0.00 0.00 75 1016.6
20260902053127 26 212 3.2 8.0 0.00 0.00 0.00 75 1016.6
20260902053027 26 259 3.2 8.0 0.00 0.00 0.00 75 1016.6
20260902052927 26 221 4.8 8.0 0.00 0.00 0.00 75 1016.6
20260902052827 26 125 3.2 8.0 0.00 0.00 0.00 75 1016.6
20260902052727 26 198 4.8 8.0 0.00 0.00 0.00 75 1016.6
20260902052627 26 203 4.8 8.0 0.00 0.00 0.00 75 1016.3
20260902052527 26 188 4.8 8.0 0.00 0.00 0.00 75 1016.3
20260902052427 26 190 4.8 8.0 0.00 0.00 0.00 75 1016.3
20260902052327 26 207 3.2 12.9 0.00 0.00 0.00 75 1016.3
20260902052227 26 205 4.8 12.9 0.00 0.00 0.00 75 1016.6
20260902052127 26 187 4.8 12.9 0.00 0.00 0.00 75 1016.3
20260902052027 26 218 4.8 12.9 0.00 0.00 0.00 75 1016.6
20260902051927 26 180 3.2 12.9 0.00 0.00 0.00 75 1016.3
20260902051827 26 170 4.8 12.9 0.00 0.00 0.00 75 1016.3
20260902051727 26 243 4.8 12.9 0.00 0.00 0.00 74 1016.3
20260902051627 26 183 4.8 12.9 0.00 0.00 0.00 74 1016.3
20260902051527 26 211 3.2 12.9 0.00 0.00 0.00 74 1016.3
20260902051427 26 200 6.4 12.9 0.00 0.00 0.00 74 1016.3
20260902051327 26 224 4.8 9.7 0.00 0.00 0.00 74 1016.3
20260902051227 26 167 3.2 9.7 0.00 0.00 0.00 74 1016.3
20260902051127 26 139 3.2 9.7 0.00 0.00 0.00 74 1016.3
20260902051027 26 170 4.8 9.7 0.00 0.00 0.00 74 1016.3
20260902050927 26 198 3.2 8.0 0.00 0.00 0.00 74 1016.3
20260902050827 26 188 4.8 11.3 0.00 0.00 0.00 74 1016.3
20260902050727 26 184 4.8 11.3 0.00 0.00 0.00 74 1016.3
20260902050627 26 186 3.2 11.3 0.00 0.00 0.00 74 1016.3
20260902050527 26 188 3.2 11.3 0.00 0.00 0.00 74 1016.3
20260902050427 26 201 1.6 11.3 0.00 0.00 0.00 73 1016.3
20260902050327 26 224 4.8 11.3 0.00 0.00 0.00 73 1016.3
20260902050227 26 181 3.2 11.3 0.00 0.00 0.00 73 1016.3
20260902050127 26 170 4.8 12.9 0.00 0.00 0.00 73 1016.3
20260902050027 26 201 4.8 12.9 0.00 0.00 0.00 73 1016.3
20260902045927 26 198 6.4 12.9 0.00 0.00 0.00 73 1016.3
20260902045827 26 197 6.4 12.9 0.00 0.00 0.00 73 1016.3
20260902045727 26 214 4.8 12.9 0.00 0.00 0.00 73 1016.3
20260902045627 26 180 4.8 12.9 0.00 0.00 0.00 73 1016.3
20260902045527 26 243 4.8 12.9 0.00 0.00 0.00 73 1016.3
20260902045427 26 187 4.8 12.9 0.00 0.00 0.00 73 1016.3
20260902045327 26 188 6.4 12.9 0.00 0.00 0.00 73 1016.3
20260902045227 26 186 6.4 12.9 0.00 0.00 0.00 73 1016.3
20260902045127 26 191 6.4 14.5 0.00 0.00 0.00 73 1016.3
20260902045027 26 191 6.4 14.5 0.00 0.00 0.00 73 1016.3
20260902044927 26 174 4.8 14.5 0.00 0.00 0.00 73 1016.3
20260902044827 26 207 6.4 14.5 0.00 0.00 0.00 73 1016.3
20260902044727 26 193 6.4 14.5 0.00 0.00 0.00 73 1016.3
20260902044627 26 256 4.8 14.5 0.00 0.00 0.00 73 1016.3
20260902044527 26 181 4.8 14.5 0.00 0.00 0.00 73 1016.3
20260902044427 26 188 6.4 14.5 0.00 0.00 0.00 73 1016.3
20260902044327 26 207 6.4 14.5 0.00 0.00 0.00 73 1016.3
20260902044227 26 194 9.7 14.5 0.00 0.00 0.00 73 1016.3
20260902044127 26 197 8.0 12.9 0.00 0.00 0.00 73 1016.3
20260902044027 26 198 8.0 11.3 0.00 0.00 0.00 73 1016.3
20260902043927 26 194 4.8 14.5 0.00 0.00 0.00 73 1016.3
20260902043827 26 179 8.0 14.5 0.00 0.00 0.00 73 1016.3
20260902043727 26 159 4.8 14.5 0.00 0.00 0.00 73 1016.3
20260902043627 26 183 4.8 14.5 0.00 0.00 0.00 73 1016.3
20260902043527 26 197 6.4 14.5 0.00 0.00 0.00 73 1016.3
20260902043427 26 225 6.4 14.5 0.00 0.00 0.00 73 1016.3
20260902043327 26 260 4.8 14.5 0.00 0.00 0.00 73 1016.3
20260902043227 26 198 6.4 14.5 0.00 0.00 0.00 73 1016.3
20260902043127 26 200 4.8 14.5 0.00 0.00 0.00 73 1016.3
20260902043027 26 190 8.0 14.5 0.00 0.00 0.00 73 1016.3
20260902042927 26 218 4.8 11.3 0.00 0.00 0.00 73 1016.3
20260902042827 26 191 6.4 11.3 0.00 0.00 0.00 73 1016.3
20260902042727 26 205 6.4 12.9 0.00 0.00 0.00 73 1016.3
20260902042627 26 208 6.4 12.9 0.00 0.00 0.00 73 1016.3
20260902042527 27 184 8.0 12.9 0.00 0.00 0.00 73 1016.3
20260902042427 27 188 6.4 12.9 0.00 0.00 0.00 73 1016.3
20260902042327 27 201 6.4 12.9 0.00 0.00 0.00 73 1016.3
20260902042227 27 204 8.0 12.9 0.00 0.00 0.00 73 1016.3
20260902042127 26 217 8.0 12.9 0.00 0.00 0.00 73 1016.3
20260902042027 26 204 8.0 12.9 0.00 0.00 0.00 73 1016.6
20260902041927 27 195 6.4 12.9 0.00 0.00 0.00 73 1016.3
20260902041827 26 221 6.4 12.9 0.00 0.00 0.00 73 1016.6
20260902041727 26 207 4.8 9.7 0.00 0.00 0.00 72 1016.6
20260902041627 26 187 4.8 9.7 0.00 0.00 0.00 72 1016.6
20260902041527 27 195 4.8 9.7 0.00 0.00 0.00 72 1016.6
20260902041427 27 207 4.8 9.7 0.00 0.00 0.00 72 1016.6
20260902041327 27 204 4.8 9.7 0.00 0.00 0.00 72 1016.6
20260902041227 27 205 6.4 9.7 0.00 0.00 0.00 72 1016.6
20260902041127 27 187 4.8 8.0 0.00 0.00 0.00 72 1016.6
20260902041027 27 203 4.8 8.0 0.00 0.00 0.00 72 1016.6
20260902040927 27 200 3.2 8.0 0.00 0.00 0.00 72 1016.6
20260902040827 27 194 3.2 8.0 0.00 0.00 0.00 72 1016.6
20260902040727 27 198 3.2 8.0 0.00 0.00 0.00 72 1016.6
20260902040627 27 184 4.8 8.0 0.00 0.00 0.00 72 1016.6
20260902040527 27 194 4.8 8.0 0.00 0.00 0.00 72 1016.6
20260902040427 27 263 3.2 6.4 0.00 0.00 0.00 72 1016.6
20260902040327 27 255 3.2 6.4 0.00 0.00 0.00 72 1016.6
20260902040227 27 211 4.8 6.4 0.00 0.00 0.00 72 1016.6
20260902040127 27 160 4.8 6.4 0.00 0.00 0.00 72 1016.6
20260902040027 27 228 3.2 6.4 0.00 0.00 0.00 71 1016.6
20260902035927 27 191 3.2 9.7 0.00 0.00 0.00 71 1016.6
20260902035827 27 200 3.2 9.7 0.00 0.00 0.00 71 1016.6
20260902035727 27 179 4.8 9.7 0.00 0.00 0.00 71 1016.6
20260902035627 27 201 4.8 9.7 0.00 0.00 0.00 71 1016.6
20260902035527 27 201 3.2 9.7 0.00 0.00 0.00 71 1016.6
20260902035427 27 183 4.8 9.7 0.00 0.00 0.00 71 1016.6
20260902035327 27 195 1.6 9.7 0.00 0.00 0.00 71 1016.6
20260902035227 27 194 3.2 9.7 0.00 0.00 0.00 71 1016.6
20260902035127 27 210 3.2 9.7 0.00 0.00 0.00 71 1016.6
20260902035027 27 194 4.8 9.7 0.00 0.00 0.00 71 1016.6
20260902034927 27 208 4.8 9.7 0.00 0.00 0.00 71 1016.6
20260902034827 27 204 3.2 9.7 0.00 0.00 0.00 71 1016.6
20260902034727 27 221 1.6 9.7 0.00 0.00 0.00 71 1016.6
20260902034627 27 271 4.8 9.7 0.00 0.00 0.00 71 1016.6
20260902034527 27 210 4.8 9.7 0.00 0.00 0.00 71 1016.6
20260902034427 27 215 4.8 9.7 0.00 0.00 0.00 71 1016.6
20260902034327 27 211 6.4 9.7 0.00 0.00 0.00 71 1016.6
20260902034227 27 201 6.4 9.7 0.00 0.00 0.00 71 1016.6
20260902034127 27 193 4.8 9.7 0.00 0.00 0.00 71 1016.6
20260902034027 27 231 4.8 9.7 0.00 0.00 0.00 71 1016.6
20260902033927 27 203 4.8 9.7 0.00 0.00 0.00 71 1016.6
20260902033827 27 208 4.8 9.7 0.00 0.00 0.00 71 1016.6
20260902033727 27 224 4.8 9.7 0.00 0.00 0.00 71 1016.6
20260902033627 27 231 6.4 9.7 0.00 0.00 0.00 71 1016.6
20260902033527 27 183 4.8 8.0 0.00 0.00 0.00 71 1016.6
20260902033427 27 179 4.8 8.0 0.00 0.00 0.00 71 1016.6
20260902033327 27 210 3.2 8.0 0.00 0.00 0.00 71 1016.6
20260902033227 27 222 3.2 8.0 0.00 0.00 0.00 71 1016.6
20260902033127 27 215 4.8 8.0 0.00 0.00 0.00 71 1016.6
20260902033027 27 104 1.6 8.0 0.00 0.00 0.00 70 1016.6
20260902032927 27 158 1.6 8.0 0.00 0.00 0.00 70 1016.6
20260902032827 27 165 3.2 8.0 0.00 0.00 0.00 70 1016.6
20260902032727 27 211 4.8 9.7 0.00 0.00 0.00 70 1016.6
20260902032627 27 170 3.2 9.7 0.00 0.00 0.00 70 1016.6
20260902032527 27 183 4.8 9.7 0.00 0.00 0.00 70 1016.6
20260902032427 27 169 6.4 9.7 0.00 0.00 0.00 70 1016.6
20260902032327 27 203 4.8 9.7 0.00 0.00 0.00 70 1016.6
20260902032227 27 179 3.2 9.7 0.00 0.00 0.00 70 1016.6
20260902032127 27 169 4.8 9.7 0.00 0.00 0.00 70 1016.6
20260902032027 27 208 3.2 9.7 0.00 0.00 0.00 70 1016.6
20260902031927 27 243 4.8 9.7 0.00 0.00 0.00 70 1016.6
20260902031827 27 186 6.4 9.7 0.00 0.00 0.00 70 1016.6
20260902031727 27 188 4.8 8.0 0.00 0.00 0.00 70 1016.6
20260902031627 27 191 3.2 8.0 0.00 0.00 0.00 70 1016.6
20260902031527 27 198 3.2 9.7 0.00 0.00 0.00 70 1016.6
20260902031427 27 197 3.2 9.7 0.00 0.00 0.00 70 1016.6
20260902031327 27 190 3.2 9.7 0.00 0.00 0.00 70 1016.6
20260902031227 27 201 3.2 9.7 0.00 0.00 0.00 70 1016.6
20260902031127 27 204 4.8 9.7 0.00 0.00 0.00 70 1016.6
20260902031027 27 204 4.8 9.7 0.00 0.00 0.00 70 1016.6
20260902030927 27 167 4.8 9.7 0.00 0.00 0.00 70 1016.6
20260902030827 27 257 1.6 9.7 0.00 0.00 0.00 70 1016.6
20260902030727 27 181 4.8 9.7 0.00 0.00 0.00 70 1016.6
20260902030627 27 177 3.2 9.7 0.00 0.00 0.00 69 1016.6
20260902030527 27 207 3.2 8.0 0.00 0.00 0.00 69 1016.6
20260902030427 27 195 3.2 8.0 0.00 0.00 0.00 69 1016.6
20260902030327 27 191 3.2 8.0 0.00 0.00 0.00 69 1016.6
20260902030227 27 194 4.8 8.0 0.00 0.00 0.00 69 1016.6
20260902030127 27 195 3.2 8.0 0.00 0.00 0.00 69 1016.6
20260902030027 27 194 3.2 8.0 0.00 0.00 0.00 69 1016.6
20260902025927 27 205 3.2 8.0 0.00 0.00 0.00 69 1016.6
20260902025827 27 212 3.2 9.7 0.00 0.00 0.00 69 1016.6
20260902025727 27 205 3.2 9.7 0.00 0.00 0.00 69 1016.6
20260902025627 27 156 4.8 9.7 0.00 0.00 0.00 69 1016.6
20260902025527 27 190 4.8 9.7 0.00 0.00 0.00 69 1016.6
20260902025427 27 195 3.2 9.7 0.00 0.00 0.00 69 1016.6
20260902025327 27 248 4.8 9.7 0.00 0.00 0.00 69 1016.6
20260902025227 27 211 3.2 9.7 0.00 0.00 0.00 69 1016.6
20260902025127 27 232 3.2 9.7 0.00 0.00 0.00 69 1016.6
20260902025027 28 195 3.2 9.7 0.00 0.00 0.00 69 1016.6
20260902024927 28 236 3.2 9.7 0.00 0.00 0.00 69 1016.6
20260902024827 28 207 6.4 9.7 0.00 0.00 0.00 69 1016.6
20260902024727 28 190 4.8 8.0 0.00 0.00 0.00 69 1016.6
20260902024627 28 205 4.8 8.0 0.00 0.00 0.00 69 1016.6
20260902024527 28 203 4.8 8.0 0.00 0.00 0.00 69 1016.6
20260902024427 28 201 4.8 8.0 0.00 0.00 0.00 69 1016.6
20260902024327 28 207 4.8 8.0 0.00 0.00 0.00 69 1016.6
20260902024227 28 211 6.4 8.0 0.00 0.00 0.00 69 1016.6
20260902024127 28 179 4.8 8.0 0.00 0.00 0.00 69 1016.6
20260902024027 28 194 6.4 8.0 0.00 0.00 0.00 68 1016.6
20260902023927 28 165 4.8 8.0 0.00 0.00 0.00 68 1016.6
20260902023827 28 180 1.6 8.0 0.00 0.00 0.00 68 1016.6
20260902023727 28 198 4.8 8.0 0.00 0.00 0.00 68 1016.6
20260902023627 28 207 4.8 8.0 0.00 0.00 0.00 68 1016.6
20260902023527 28 191 4.8 8.0 0.00 0.00 0.00 68 1016.6
20260902023427 28 246 6.4 8.0 0.00 0.00 0.00 68 1016.6
20260902023327 28 208 3.2 8.0 0.00 0.00 0.00 68 1016.6
20260902023227 28 197 3.2 8.0 0.00 0.00 0.00 68 1016.6
20260902023127 28 197 4.8 8.0 0.00 0.00 0.00 68 1016.6
20260902023027 28 195 3.2 8.0 0.00 0.00 0.00 68 1016.6
20260902022927 28 197 4.8 8.0 0.00 0.00 0.00 68 1016.6
20260902022827 28 179 1.6 9.7 0.00 0.00 0.00 68 1016.6
20260902022727 28 210 1.6 9.7 0.00 0.00 0.00 68 1016.6
20260902022627 28 195 4.8 9.7 0.00 0.00 0.00 68 1016.6
20260902022527 28 221 3.2 9.7 0.00 0.00 0.00 68 1016.6
20260902022427 28 221 1.6 9.7 0.00 0.00 0.00 67 1016.6
20260902022327 28 222 1.6 11.3 0.00 0.00 0.00 67 1016.6
20260902022227 28 183 3.2 11.3 0.00 0.00 0.00 68 1016.6
20260902022127 28 193 4.8 11.3 0.00 0.00 0.00 68 1016.6
20260902022027 28 217 3.2 11.3 0.00 0.00 0.00 68 1016.6
20260902021927 28 236 6.4 11.3 0.00 0.00 0.00 68 1016.6
20260902021827 28 217 6.4 11.3 0.00 0.00 0.00 68 1016.6
20260902021727 28 194 4.8 11.3 0.00 0.00 0.00 68 1016.6
20260902021627 28 229 3.2 11.3 0.00 0.00 0.00 67 1016.6
20260902021527 28 224 3.2 11.3 0.00 0.00 0.00 67 1016.6
20260902021427 28 224 6.4 11.3 0.00 0.00 0.00 67 1016.6
20260902021327 28 166 4.8 9.7 0.00 0.00 0.00 67 1016.6
20260902021227 28 188 6.4 9.7 0.00 0.00 0.00 67 1016.6
20260902021127 28 201 4.8 9.7 0.00 0.00 0.00 67 1016.6
20260902021027 28 188 3.2 6.4 0.00 0.00 0.00 67 1016.6
20260902020927 28 163 3.2 6.4 0.00 0.00 0.00 67 1016.6
20260902020827 28 145 1.6 6.4 0.00 0.00 0.00 67 1016.6
20260902020727 28 165 1.6 6.4 0.00 0.00 0.00 67 1016.6
20260902020627 28 212 4.8 9.7 0.00 0.00 0.00 67 1016.6
20260902020527 28 208 3.2 9.7 0.00 0.00 0.00 67 1016.6
20260902020427 28 229 1.6 9.7 0.00 0.00 0.00 67 1016.6
20260902020327 28 215 1.6 9.7 0.00 0.00 0.00 67 1016.6
20260902020227 28 218 3.2 9.7 0.00 0.00 0.00 67 1016.6
20260902020127 28 221 3.2 9.7 0.00 0.00 0.00 67 1016.6
20260902020027 28 191 3.2 9.7 0.00 0.00 0.00 67 1016.6
20260902015927 28 212 3.2 9.7 0.00 0.00 0.00 66 1016.6
20260902015827 28 212 4.8 9.7 0.00 0.00 0.00 66 1016.6
20260902015727 28 229 6.4 9.7 0.00 0.00 0.00 66 1016.6
20260902015627 28 172 4.8 11.3 0.00 0.00 0.00 66 1016.6
20260902015527 28 215 4.8 11.3 0.00 0.00 0.00 66 1016.6
20260902015427 28 190 6.4 11.3 0.00 0.00 0.00 66 1016.6
20260902015327 28 214 4.8 11.3 0.00 0.00 0.00 66 1016.6
20260902015227 28 184 6.4 11.3 0.00 0.00 0.00 66 1016.6
20260902015127 28 260 4.8 11.3 0.00 0.00 0.00 66 1016.6
20260902015027 28 250 6.4 11.3 0.00 0.00 0.00 66 1016.6
20260902014927 28 195 4.8 11.3 0.00 0.00 0.00 66 1016.6
20260902014827 28 197 4.8 11.3 0.00 0.00 0.00 66 1016.6
20260902014727 28 197 8.0 11.3 0.00 0.00 0.00 66 1016.6
20260902014627 28 184 8.0 11.3 0.00 0.00 0.00 66 1016.6
20260902014527 28 208 6.4 11.3 0.00 0.00 0.00 66 1016.6
20260902014427 28 212 6.4 9.7 0.00 0.00 0.00 66 1016.6
20260902014327 28 159 4.8 9.7 0.00 0.00 0.00 66 1016.6
20260902014227 28 184 6.4 9.7 0.00 0.00 0.00 66 1016.6
20260902014127 28 210 8.0 9.7 0.00 0.00 0.00 66 1016.6
20260902014027 28 212 3.2 9.7 0.00 0.00 0.00 66 1016.6
20260902013927 28 190 4.8 9.7 0.00 0.00 0.00 66 1016.6
20260902013827 28 200 6.4 9.7 0.00 0.00 0.00 66 1016.6
20260902013727 28 197 6.4 9.7 0.00 0.00 0.00 66 1016.6
20260902013627 28 214 6.4 9.7 0.00 0.00 0.00 66 1016.6
20260902013527 28 188 6.4 9.7 0.00 0.00 0.00 67 1016.6
20260902013427 28 180 4.8 9.7 0.00 0.00 0.00 67 1016.6
20260902013327 28 200 4.8 9.7 0.00 0.00 0.00 67 1016.6
20260902013227 28 190 6.4 9.7 0.00 0.00 0.00 67 1016.6
20260902013127 28 197 6.4 9.7 0.00 0.00 0.00 67 1016.6
20260902013027 28 193 4.8 9.7 0.00 0.00 0.00 67 1016.6
20260902012927 28 222 4.8 9.7 0.00 0.00 0.00 67 1016.6
20260902012827 28 176 4.8 9.7 0.00 0.00 0.00 67 1016.6
20260902012727 28 188 6.4 9.7 0.00 0.00 0.00 67 1016.3
20260902012627 28 176 4.8 9.7 0.00 0.00 0.00 67 1016.3
20260902012527 28 194 3.2 6.4 0.00 0.00 0.00 67 1016.3
20260902012427 28 195 4.8 6.4 0.00 0.00 0.00 66 1016.3
20260902012327 28 186 3.2 6.4 0.00 0.00 0.00 66 1016.3
20260902012227 28 188 3.2 6.4 0.00 0.00 0.00 66 1016.3
20260902012127 28 179 3.2 8.0 0.00 0.00 0.00 66 1016.3
20260902012027 28 176 4.8 8.0 0.00 0.00 0.00 66 1016.3
20260902011927 28 195 4.8 8.0 0.00 0.00 0.00 66 1016.3
20260902011827 28 180 4.8 8.0 0.00 0.00 0.00 66 1016.3
20260902011727 28 155 3.2 8.0 0.00 0.00 0.00 66 1016.3
20260902011627 29 188 3.2 8.0 0.00 0.00 0.00 66 1016.3
20260902011527 28 181 3.2 8.0 0.00 0.00 0.00 65 1016.3
20260902011427 29 186 3.2 8.0 0.00 0.00 0.00 65 1016.3
20260902011327 29 198 3.2 8.0 0.00 0.00 0.00 65 1016.3
20260902011227 29 191 4.8 8.0 0.00 0.00 0.00 65 1016.3